<?xml version="1.0" encoding="UTF-8" standalone="no" ?>
<gpx xmlns="http://www.topografix.com/GPX/1/1" xmlns:xsi="http://www.w3.org/2001/XMLSchema-instance" xsi:schemaLocation="http://www.topografix.com/GPX/1/1 http://www.topografix.com/GPX/1/1/gpx.xsd" version="1.1" creator="VisuGPX - https://www.visugpx.com">
  <metadata>
    <name>Prépa - Venelle: guidage 23nov</name>
  </metadata>
  <trk>
    <name><![CDATA[Prépa - Venelle: guidage 23nov]]></name>
    <trkseg>
      <trkpt lat="43.5944" lon="5.49416">
        <ele>388.51712359888</ele>
        <time>2020-11-26T08:03:25Z</time>
      </trkpt>
      <trkpt lat="43.59426" lon="5.49424">
        <ele>389.02012977968</ele>
        <time>2020-11-26T08:03:25Z</time>
      </trkpt>
      <trkpt lat="43.59425" lon="5.49437">
        <ele>389.61549613778</ele>
        <time>2020-11-26T08:03:25Z</time>
      </trkpt>
      <trkpt lat="43.59457" lon="5.49469">
        <ele>390.61261562805</ele>
        <time>2020-11-26T08:03:25Z</time>
      </trkpt>
      <trkpt lat="43.59496" lon="5.4948">
        <ele>391.43862626657</ele>
        <time>2020-11-26T08:03:25Z</time>
      </trkpt>
      <trkpt lat="43.59508" lon="5.49478">
        <ele>392.24976363669</ele>
        <time>2020-11-26T08:03:25Z</time>
      </trkpt>
      <trkpt lat="43.59534" lon="5.49456">
        <ele>393.18753458836</ele>
        <time>2020-11-26T08:03:25Z</time>
      </trkpt>
      <trkpt lat="43.59541" lon="5.49452">
        <ele>394.04911036228</ele>
        <time>2020-11-26T08:03:25Z</time>
      </trkpt>
      <trkpt lat="43.59548" lon="5.49448">
        <ele>394.94381608604</ele>
        <time>2020-11-26T08:03:25Z</time>
      </trkpt>
      <trkpt lat="43.59559" lon="5.49449">
        <ele>395.89207064475</ele>
        <time>2020-11-26T08:03:25Z</time>
      </trkpt>
      <trkpt lat="43.59572" lon="5.4946">
        <ele>396.87851491329</ele>
        <time>2020-11-26T08:03:25Z</time>
      </trkpt>
      <trkpt lat="43.59592" lon="5.49465">
        <ele>397.85518164473</ele>
        <time>2020-11-26T08:03:25Z</time>
      </trkpt>
      <trkpt lat="43.59611" lon="5.49476">
        <ele>398.8672987372</ele>
        <time>2020-11-26T08:03:25Z</time>
      </trkpt>
      <trkpt lat="43.59617" lon="5.49485">
        <ele>399.80911299279</ele>
        <time>2020-11-26T08:03:25Z</time>
      </trkpt>
      <trkpt lat="43.5962" lon="5.49503">
        <ele>400.76387202726</ele>
        <time>2020-11-26T08:03:25Z</time>
      </trkpt>
      <trkpt lat="43.59621" lon="5.49511">
        <ele>401.60216250502</ele>
        <time>2020-11-26T08:03:25Z</time>
      </trkpt>
      <trkpt lat="43.59619" lon="5.49521">
        <ele>402.35069556548</ele>
        <time>2020-11-26T08:03:25Z</time>
      </trkpt>
      <trkpt lat="43.596" lon="5.49573">
        <ele>403.10215718083</ele>
        <time>2020-11-26T08:03:25Z</time>
      </trkpt>
      <trkpt lat="43.59599" lon="5.4959">
        <ele>403.75175816409</ele>
        <time>2020-11-26T08:03:25Z</time>
      </trkpt>
      <trkpt lat="43.59619" lon="5.49671">
        <ele>404.40512221566</ele>
        <time>2020-11-26T08:03:25Z</time>
      </trkpt>
      <trkpt lat="43.59625" lon="5.49688">
        <ele>405.02985144713</ele>
        <time>2020-11-26T08:03:25Z</time>
      </trkpt>
      <trkpt lat="43.59628" lon="5.49707">
        <ele>405.60517664443</ele>
        <time>2020-11-26T08:03:25Z</time>
      </trkpt>
      <trkpt lat="43.59636" lon="5.49729">
        <ele>406.18655931454</ele>
        <time>2020-11-26T08:03:25Z</time>
      </trkpt>
      <trkpt lat="43.59649" lon="5.49762">
        <ele>406.72217256144</ele>
        <time>2020-11-26T08:03:26Z</time>
      </trkpt>
      <trkpt lat="43.59655" lon="5.49776">
        <ele>407.12308502673</ele>
        <time>2020-11-26T08:03:26Z</time>
      </trkpt>
      <trkpt lat="43.5966" lon="5.4979">
        <ele>407.49515332963</ele>
        <time>2020-11-26T08:03:26Z</time>
      </trkpt>
      <trkpt lat="43.59662" lon="5.49804">
        <ele>407.80515012792</ele>
        <time>2020-11-26T08:03:26Z</time>
      </trkpt>
      <trkpt lat="43.59669" lon="5.49815">
        <ele>408.06745147394</ele>
        <time>2020-11-26T08:03:26Z</time>
      </trkpt>
      <trkpt lat="43.59688" lon="5.49842">
        <ele>408.37585976797</ele>
        <time>2020-11-26T08:03:26Z</time>
      </trkpt>
      <trkpt lat="43.59695" lon="5.49852">
        <ele>408.61030457518</ele>
        <time>2020-11-26T08:03:26Z</time>
      </trkpt>
      <trkpt lat="43.59707" lon="5.49885">
        <ele>408.69520587205</ele>
        <time>2020-11-26T08:03:26Z</time>
      </trkpt>
      <trkpt lat="43.5971" lon="5.49904">
        <ele>408.70916385529</ele>
        <time>2020-11-26T08:03:26Z</time>
      </trkpt>
      <trkpt lat="43.59715" lon="5.49922">
        <ele>408.72651448859</ele>
        <time>2020-11-26T08:03:26Z</time>
      </trkpt>
      <trkpt lat="43.59718" lon="5.49949">
        <ele>408.82624285328</ele>
        <time>2020-11-26T08:03:27Z</time>
      </trkpt>
      <trkpt lat="43.59721" lon="5.49958">
        <ele>408.88249143626</ele>
        <time>2020-11-26T08:03:27Z</time>
      </trkpt>
      <trkpt lat="43.59722" lon="5.49967">
        <ele>408.9597292653</ele>
        <time>2020-11-26T08:03:27Z</time>
      </trkpt>
      <trkpt lat="43.59736" lon="5.50002">
        <ele>408.99347057236</ele>
        <time>2020-11-26T08:03:27Z</time>
      </trkpt>
      <trkpt lat="43.59738" lon="5.50011">
        <ele>409.12492421646</ele>
        <time>2020-11-26T08:03:27Z</time>
      </trkpt>
      <trkpt lat="43.59741" lon="5.5002">
        <ele>409.2765049187</ele>
        <time>2020-11-26T08:03:27Z</time>
      </trkpt>
      <trkpt lat="43.59746" lon="5.50055">
        <ele>409.58748713853</ele>
        <time>2020-11-26T08:03:27Z</time>
      </trkpt>
      <trkpt lat="43.59758" lon="5.5009">
        <ele>409.90086614778</ele>
        <time>2020-11-26T08:03:28Z</time>
      </trkpt>
      <trkpt lat="43.59761" lon="5.50107">
        <ele>410.23783974922</ele>
        <time>2020-11-26T08:03:28Z</time>
      </trkpt>
      <trkpt lat="43.59774" lon="5.5015">
        <ele>410.5840530843</ele>
        <time>2020-11-26T08:03:28Z</time>
      </trkpt>
      <trkpt lat="43.59803" lon="5.50193">
        <ele>411.05597442738</ele>
        <time>2020-11-26T08:03:28Z</time>
      </trkpt>
      <trkpt lat="43.5983" lon="5.5022">
        <ele>411.79405498747</ele>
        <time>2020-11-26T08:03:28Z</time>
      </trkpt>
      <trkpt lat="43.59848" lon="5.50213">
        <ele>412.28195168852</ele>
        <time>2020-11-26T08:03:28Z</time>
      </trkpt>
      <trkpt lat="43.59861" lon="5.50203">
        <ele>412.71742410954</ele>
        <time>2020-11-26T08:03:29Z</time>
      </trkpt>
      <trkpt lat="43.59895" lon="5.50182">
        <ele>413.11719445783</ele>
        <time>2020-11-26T08:03:29Z</time>
      </trkpt>
      <trkpt lat="43.59905" lon="5.50182">
        <ele>413.64824021861</ele>
        <time>2020-11-26T08:03:29Z</time>
      </trkpt>
      <trkpt lat="43.59918" lon="5.50192">
        <ele>414.38610965212</ele>
        <time>2020-11-26T08:03:29Z</time>
      </trkpt>
      <trkpt lat="43.59931" lon="5.50191">
        <ele>414.98532898449</ele>
        <time>2020-11-26T08:03:29Z</time>
      </trkpt>
      <trkpt lat="43.59937" lon="5.50188">
        <ele>415.54166320771</ele>
        <time>2020-11-26T08:03:29Z</time>
      </trkpt>
      <trkpt lat="43.59954" lon="5.50185">
        <ele>416.14878358358</ele>
        <time>2020-11-26T08:03:30Z</time>
      </trkpt>
      <trkpt lat="43.59963" lon="5.50181">
        <ele>416.72121094523</ele>
        <time>2020-11-26T08:03:30Z</time>
      </trkpt>
      <trkpt lat="43.5997" lon="5.50176">
        <ele>417.31767286329</ele>
        <time>2020-11-26T08:03:30Z</time>
      </trkpt>
      <trkpt lat="43.59989" lon="5.50173">
        <ele>417.92425609192</ele>
        <time>2020-11-26T08:03:30Z</time>
      </trkpt>
      <trkpt lat="43.59994" lon="5.50164">
        <ele>418.47295798904</ele>
        <time>2020-11-26T08:03:30Z</time>
      </trkpt>
      <trkpt lat="43.59995" lon="5.50155">
        <ele>418.97293656998</ele>
        <time>2020-11-26T08:03:31Z</time>
      </trkpt>
      <trkpt lat="43.6" lon="5.50146">
        <ele>419.53519550292</ele>
        <time>2020-11-26T08:03:31Z</time>
      </trkpt>
      <trkpt lat="43.60013" lon="5.50134">
        <ele>420.00848604807</ele>
        <time>2020-11-26T08:03:31Z</time>
      </trkpt>
      <trkpt lat="43.60066" lon="5.50107">
        <ele>420.45924213232</ele>
        <time>2020-11-26T08:03:31Z</time>
      </trkpt>
      <trkpt lat="43.60143" lon="5.5011">
        <ele>420.91476645691</ele>
        <time>2020-11-26T08:03:32Z</time>
      </trkpt>
      <trkpt lat="43.60156" lon="5.50113">
        <ele>421.52742919142</ele>
        <time>2020-11-26T08:03:32Z</time>
      </trkpt>
      <trkpt lat="43.60162" lon="5.50111">
        <ele>422.04589701582</ele>
        <time>2020-11-26T08:03:32Z</time>
      </trkpt>
      <trkpt lat="43.60169" lon="5.50104">
        <ele>422.46549545429</ele>
        <time>2020-11-26T08:03:32Z</time>
      </trkpt>
      <trkpt lat="43.60182" lon="5.50096">
        <ele>422.86210853407</ele>
        <time>2020-11-26T08:03:33Z</time>
      </trkpt>
      <trkpt lat="43.60194" lon="5.50093">
        <ele>423.24579964647</ele>
        <time>2020-11-26T08:03:33Z</time>
      </trkpt>
      <trkpt lat="43.60201" lon="5.50093">
        <ele>423.56710333294</ele>
        <time>2020-11-26T08:03:33Z</time>
      </trkpt>
      <trkpt lat="43.60234" lon="5.50081">
        <ele>424.04946074732</ele>
        <time>2020-11-26T08:03:33Z</time>
      </trkpt>
      <trkpt lat="43.60247" lon="5.50078">
        <ele>424.28370615495</ele>
        <time>2020-11-26T08:03:34Z</time>
      </trkpt>
      <trkpt lat="43.60266" lon="5.50065">
        <ele>424.2355067056</ele>
        <time>2020-11-26T08:03:34Z</time>
      </trkpt>
      <trkpt lat="43.60304" lon="5.50054">
        <ele>424.17691634691</ele>
        <time>2020-11-26T08:03:34Z</time>
      </trkpt>
      <trkpt lat="43.6031" lon="5.50055">
        <ele>423.87043489626</ele>
        <time>2020-11-26T08:03:34Z</time>
      </trkpt>
      <trkpt lat="43.60323" lon="5.50069">
        <ele>423.37995847179</ele>
        <time>2020-11-26T08:03:35Z</time>
      </trkpt>
      <trkpt lat="43.60324" lon="5.50079">
        <ele>422.72258440915</ele>
        <time>2020-11-26T08:03:35Z</time>
      </trkpt>
      <trkpt lat="43.60336" lon="5.5014">
        <ele>421.78120744502</ele>
        <time>2020-11-26T08:03:35Z</time>
      </trkpt>
      <trkpt lat="43.60332" lon="5.5013">
        <ele>420.76256600969</ele>
        <time>2020-11-26T08:03:35Z</time>
      </trkpt>
      <trkpt lat="43.60342" lon="5.50148">
        <ele>419.36498388302</ele>
        <time>2020-11-26T08:03:36Z</time>
      </trkpt>
      <trkpt lat="43.60334" lon="5.50166">
        <ele>417.94769872789</ele>
        <time>2020-11-26T08:03:36Z</time>
      </trkpt>
      <trkpt lat="43.60321" lon="5.50181">
        <ele>416.2780307254</ele>
        <time>2020-11-26T08:03:36Z</time>
      </trkpt>
      <trkpt lat="43.60316" lon="5.5019">
        <ele>414.48982963641</ele>
        <time>2020-11-26T08:03:37Z</time>
      </trkpt>
      <trkpt lat="43.60315" lon="5.50226">
        <ele>412.20252628232</ele>
        <time>2020-11-26T08:03:37Z</time>
      </trkpt>
      <trkpt lat="43.60315" lon="5.50244">
        <ele>409.91417268168</ele>
        <time>2020-11-26T08:03:37Z</time>
      </trkpt>
      <trkpt lat="43.60307" lon="5.50306">
        <ele>407.36109768154</ele>
        <time>2020-11-26T08:03:38Z</time>
      </trkpt>
      <trkpt lat="43.60309" lon="5.50323">
        <ele>404.86955256232</ele>
        <time>2020-11-26T08:03:38Z</time>
      </trkpt>
      <trkpt lat="43.6031" lon="5.50332">
        <ele>402.38724846899</ele>
        <time>2020-11-26T08:03:38Z</time>
      </trkpt>
      <trkpt lat="43.60308" lon="5.50349">
        <ele>399.91306429775</ele>
        <time>2020-11-26T08:03:39Z</time>
      </trkpt>
      <trkpt lat="43.60314" lon="5.50354">
        <ele>397.36091674133</ele>
        <time>2020-11-26T08:03:39Z</time>
      </trkpt>
      <trkpt lat="43.60327" lon="5.50342">
        <ele>394.7690847813</ele>
        <time>2020-11-26T08:03:39Z</time>
      </trkpt>
      <trkpt lat="43.60334" lon="5.5034">
        <ele>392.2692985168</ele>
        <time>2020-11-26T08:03:40Z</time>
      </trkpt>
      <trkpt lat="43.60346" lon="5.5034">
        <ele>389.72406627147</ele>
        <time>2020-11-26T08:03:40Z</time>
      </trkpt>
      <trkpt lat="43.60359" lon="5.50344">
        <ele>387.24554951226</ele>
        <time>2020-11-26T08:03:40Z</time>
      </trkpt>
      <trkpt lat="43.60365" lon="5.50341">
        <ele>385.01362946749</ele>
        <time>2020-11-26T08:03:41Z</time>
      </trkpt>
      <trkpt lat="43.60384" lon="5.50324">
        <ele>382.94899789365</ele>
        <time>2020-11-26T08:03:41Z</time>
      </trkpt>
      <trkpt lat="43.60391" lon="5.50323">
        <ele>380.99315397556</ele>
        <time>2020-11-26T08:03:41Z</time>
      </trkpt>
      <trkpt lat="43.60403" lon="5.50328">
        <ele>379.1403505129</ele>
        <time>2020-11-26T08:03:42Z</time>
      </trkpt>
      <trkpt lat="43.60422" lon="5.50328">
        <ele>377.38847251828</ele>
        <time>2020-11-26T08:03:42Z</time>
      </trkpt>
      <trkpt lat="43.60429" lon="5.50332">
        <ele>375.8089920476</ele>
        <time>2020-11-26T08:03:42Z</time>
      </trkpt>
      <trkpt lat="43.60435" lon="5.50341">
        <ele>374.36935294127</ele>
        <time>2020-11-26T08:03:43Z</time>
      </trkpt>
      <trkpt lat="43.60435" lon="5.5035">
        <ele>373.10914048216</ele>
        <time>2020-11-26T08:03:43Z</time>
      </trkpt>
      <trkpt lat="43.6042" lon="5.50382">
        <ele>372.00178549858</ele>
        <time>2020-11-26T08:03:43Z</time>
      </trkpt>
      <trkpt lat="43.60417" lon="5.50402">
        <ele>370.94036589552</ele>
        <time>2020-11-26T08:03:44Z</time>
      </trkpt>
      <trkpt lat="43.60424" lon="5.50437">
        <ele>369.9216863835</ele>
        <time>2020-11-26T08:03:44Z</time>
      </trkpt>
      <trkpt lat="43.60424" lon="5.50491">
        <ele>369.27187698059</ele>
        <time>2020-11-26T08:03:44Z</time>
      </trkpt>
      <trkpt lat="43.60426" lon="5.505">
        <ele>368.58886227598</ele>
        <time>2020-11-26T08:03:45Z</time>
      </trkpt>
      <trkpt lat="43.60423" lon="5.50544">
        <ele>368.04453752619</ele>
        <time>2020-11-26T08:03:45Z</time>
      </trkpt>
      <trkpt lat="43.6042" lon="5.50553">
        <ele>367.49415636123</ele>
        <time>2020-11-26T08:03:46Z</time>
      </trkpt>
      <trkpt lat="43.60418" lon="5.50571">
        <ele>367.02005393996</ele>
        <time>2020-11-26T08:03:46Z</time>
      </trkpt>
      <trkpt lat="43.60413" lon="5.50597">
        <ele>366.52978327489</ele>
        <time>2020-11-26T08:03:46Z</time>
      </trkpt>
      <trkpt lat="43.60412" lon="5.50615">
        <ele>365.95178729742</ele>
        <time>2020-11-26T08:03:47Z</time>
      </trkpt>
      <trkpt lat="43.60418" lon="5.50623">
        <ele>365.39337903598</ele>
        <time>2020-11-26T08:03:47Z</time>
      </trkpt>
      <trkpt lat="43.60422" lon="5.50641">
        <ele>364.80958015766</ele>
        <time>2020-11-26T08:03:47Z</time>
      </trkpt>
      <trkpt lat="43.60422" lon="5.5065">
        <ele>364.33324241682</ele>
        <time>2020-11-26T08:03:48Z</time>
      </trkpt>
      <trkpt lat="43.60406" lon="5.50723">
        <ele>363.84427358372</ele>
        <time>2020-11-26T08:03:48Z</time>
      </trkpt>
      <trkpt lat="43.60404" lon="5.5074">
        <ele>363.43656672938</ele>
        <time>2020-11-26T08:03:49Z</time>
      </trkpt>
      <trkpt lat="43.60391" lon="5.50799">
        <ele>362.87269824082</ele>
        <time>2020-11-26T08:03:49Z</time>
      </trkpt>
      <trkpt lat="43.60404" lon="5.50837">
        <ele>362.31080083381</ele>
        <time>2020-11-26T08:03:50Z</time>
      </trkpt>
      <trkpt lat="43.60417" lon="5.5085">
        <ele>361.83587809129</ele>
        <time>2020-11-26T08:03:50Z</time>
      </trkpt>
      <trkpt lat="43.60417" lon="5.50868">
        <ele>361.37316679544</ele>
        <time>2020-11-26T08:03:50Z</time>
      </trkpt>
      <trkpt lat="43.60414" lon="5.50876">
        <ele>360.97544905475</ele>
        <time>2020-11-26T08:03:51Z</time>
      </trkpt>
      <trkpt lat="43.60414" lon="5.50894">
        <ele>360.52964702265</ele>
        <time>2020-11-26T08:03:51Z</time>
      </trkpt>
      <trkpt lat="43.60415" lon="5.50903">
        <ele>360.12203715957</ele>
        <time>2020-11-26T08:03:52Z</time>
      </trkpt>
      <trkpt lat="43.60427" lon="5.50947">
        <ele>359.74500369206</ele>
        <time>2020-11-26T08:03:52Z</time>
      </trkpt>
      <trkpt lat="43.60434" lon="5.50947">
        <ele>359.32708321954</ele>
        <time>2020-11-26T08:03:53Z</time>
      </trkpt>
      <trkpt lat="43.60447" lon="5.50951">
        <ele>358.88897492357</ele>
        <time>2020-11-26T08:03:53Z</time>
      </trkpt>
      <trkpt lat="43.6051" lon="5.50956">
        <ele>358.23824413394</ele>
        <time>2020-11-26T08:03:53Z</time>
      </trkpt>
      <trkpt lat="43.60523" lon="5.50966">
        <ele>357.71501978161</ele>
        <time>2020-11-26T08:03:54Z</time>
      </trkpt>
      <trkpt lat="43.60531" lon="5.50983">
        <ele>357.20141477816</ele>
        <time>2020-11-26T08:03:54Z</time>
      </trkpt>
      <trkpt lat="43.6053" lon="5.5101">
        <ele>356.71488345901</ele>
        <time>2020-11-26T08:03:55Z</time>
      </trkpt>
      <trkpt lat="43.60512" lon="5.51034">
        <ele>356.27151649701</ele>
        <time>2020-11-26T08:03:55Z</time>
      </trkpt>
      <trkpt lat="43.60502" lon="5.5106">
        <ele>355.69886554637</ele>
        <time>2020-11-26T08:03:56Z</time>
      </trkpt>
      <trkpt lat="43.60493" lon="5.51063">
        <ele>355.00357553846</ele>
        <time>2020-11-26T08:03:56Z</time>
      </trkpt>
      <trkpt lat="43.60485" lon="5.51089">
        <ele>354.24519724482</ele>
        <time>2020-11-26T08:03:57Z</time>
      </trkpt>
      <trkpt lat="43.60451" lon="5.51139">
        <ele>353.26782467518</ele>
        <time>2020-11-26T08:03:57Z</time>
      </trkpt>
      <trkpt lat="43.60406" lon="5.51176">
        <ele>352.17855198386</ele>
        <time>2020-11-26T08:03:58Z</time>
      </trkpt>
      <trkpt lat="43.60394" lon="5.51181">
        <ele>351.09200693018</ele>
        <time>2020-11-26T08:03:58Z</time>
      </trkpt>
      <trkpt lat="43.60388" lon="5.51187">
        <ele>349.94918153214</ele>
        <time>2020-11-26T08:03:59Z</time>
      </trkpt>
      <trkpt lat="43.60381" lon="5.51198">
        <ele>348.68992242423</ele>
        <time>2020-11-26T08:03:59Z</time>
      </trkpt>
      <trkpt lat="43.60374" lon="5.51213">
        <ele>347.32986515974</ele>
        <time>2020-11-26T08:04:00Z</time>
      </trkpt>
      <trkpt lat="43.60368" lon="5.51216">
        <ele>345.92814122929</ele>
        <time>2020-11-26T08:04:00Z</time>
      </trkpt>
      <trkpt lat="43.60361" lon="5.51224">
        <ele>344.43432755427</ele>
        <time>2020-11-26T08:04:01Z</time>
      </trkpt>
      <trkpt lat="43.60335" lon="5.51249">
        <ele>342.83418338173</ele>
        <time>2020-11-26T08:04:01Z</time>
      </trkpt>
      <trkpt lat="43.60324" lon="5.51275">
        <ele>341.05043997417</ele>
        <time>2020-11-26T08:04:02Z</time>
      </trkpt>
      <trkpt lat="43.60279" lon="5.51326">
        <ele>339.24378692014</ele>
        <time>2020-11-26T08:04:02Z</time>
      </trkpt>
      <trkpt lat="43.60266" lon="5.51332">
        <ele>337.37100868562</ele>
        <time>2020-11-26T08:04:03Z</time>
      </trkpt>
      <trkpt lat="43.60253" lon="5.51334">
        <ele>335.51339977305</ele>
        <time>2020-11-26T08:04:04Z</time>
      </trkpt>
      <trkpt lat="43.60227" lon="5.51359">
        <ele>333.05422291319</ele>
        <time>2020-11-26T08:04:04Z</time>
      </trkpt>
      <trkpt lat="43.6022" lon="5.51362">
        <ele>331.04594862934</ele>
        <time>2020-11-26T08:04:05Z</time>
      </trkpt>
      <trkpt lat="43.60207" lon="5.51359">
        <ele>329.09288720347</ele>
        <time>2020-11-26T08:04:05Z</time>
      </trkpt>
      <trkpt lat="43.60181" lon="5.51366">
        <ele>327.00317287009</ele>
        <time>2020-11-26T08:04:06Z</time>
      </trkpt>
      <trkpt lat="43.60168" lon="5.51372">
        <ele>324.98234616553</ele>
        <time>2020-11-26T08:04:06Z</time>
      </trkpt>
      <trkpt lat="43.60155" lon="5.51374">
        <ele>323.2087013462</ele>
        <time>2020-11-26T08:04:07Z</time>
      </trkpt>
      <trkpt lat="43.60136" lon="5.51392">
        <ele>321.21591367356</ele>
        <time>2020-11-26T08:04:07Z</time>
      </trkpt>
      <trkpt lat="43.60122" lon="5.51427">
        <ele>318.94177023257</ele>
        <time>2020-11-26T08:04:08Z</time>
      </trkpt>
      <trkpt lat="43.60116" lon="5.51433">
        <ele>317.07160901407</ele>
        <time>2020-11-26T08:04:09Z</time>
      </trkpt>
      <trkpt lat="43.6011" lon="5.51435">
        <ele>315.3215415702</ele>
        <time>2020-11-26T08:04:09Z</time>
      </trkpt>
      <trkpt lat="43.60103" lon="5.51441">
        <ele>313.5965607557</ele>
        <time>2020-11-26T08:04:10Z</time>
      </trkpt>
      <trkpt lat="43.60049" lon="5.51527">
        <ele>311.62978649868</ele>
        <time>2020-11-26T08:04:10Z</time>
      </trkpt>
      <trkpt lat="43.60035" lon="5.51573">
        <ele>309.7661757311</ele>
        <time>2020-11-26T08:04:11Z</time>
      </trkpt>
      <trkpt lat="43.6003" lon="5.51581">
        <ele>308.26298007209</ele>
        <time>2020-11-26T08:04:12Z</time>
      </trkpt>
      <trkpt lat="43.60017" lon="5.51597">
        <ele>306.88025755093</ele>
        <time>2020-11-26T08:04:12Z</time>
      </trkpt>
      <trkpt lat="43.59991" lon="5.51607">
        <ele>305.73435880519</ele>
        <time>2020-11-26T08:04:13Z</time>
      </trkpt>
      <trkpt lat="43.59983" lon="5.51618">
        <ele>304.49378489661</ele>
        <time>2020-11-26T08:04:13Z</time>
      </trkpt>
      <trkpt lat="43.59974" lon="5.51623">
        <ele>303.36637371858</ele>
        <time>2020-11-26T08:04:14Z</time>
      </trkpt>
      <trkpt lat="43.59968" lon="5.51625">
        <ele>302.32775449568</ele>
        <time>2020-11-26T08:04:15Z</time>
      </trkpt>
      <trkpt lat="43.59955" lon="5.51634">
        <ele>301.3215437303</ele>
        <time>2020-11-26T08:04:15Z</time>
      </trkpt>
      <trkpt lat="43.59942" lon="5.5164">
        <ele>300.39235259685</ele>
        <time>2020-11-26T08:04:16Z</time>
      </trkpt>
      <trkpt lat="43.59903" lon="5.51667">
        <ele>299.50894882155</ele>
        <time>2020-11-26T08:04:17Z</time>
      </trkpt>
      <trkpt lat="43.59897" lon="5.51676">
        <ele>298.66117810416</ele>
        <time>2020-11-26T08:04:17Z</time>
      </trkpt>
      <trkpt lat="43.59893" lon="5.51685">
        <ele>297.8464999611</ele>
        <time>2020-11-26T08:04:18Z</time>
      </trkpt>
      <trkpt lat="43.59893" lon="5.51693">
        <ele>297.05622932901</ele>
        <time>2020-11-26T08:04:19Z</time>
      </trkpt>
      <trkpt lat="43.59904" lon="5.5171">
        <ele>296.19089344308</ele>
        <time>2020-11-26T08:04:19Z</time>
      </trkpt>
      <trkpt lat="43.5991" lon="5.51714">
        <ele>295.48553646794</ele>
        <time>2020-11-26T08:04:20Z</time>
      </trkpt>
      <trkpt lat="43.59916" lon="5.51722">
        <ele>294.80402465454</ele>
        <time>2020-11-26T08:04:20Z</time>
      </trkpt>
      <trkpt lat="43.59934" lon="5.51784">
        <ele>294.05764422789</ele>
        <time>2020-11-26T08:04:21Z</time>
      </trkpt>
      <trkpt lat="43.59939" lon="5.51793">
        <ele>293.57715619344</ele>
        <time>2020-11-26T08:04:22Z</time>
      </trkpt>
      <trkpt lat="43.59945" lon="5.51796">
        <ele>293.13361510892</ele>
        <time>2020-11-26T08:04:22Z</time>
      </trkpt>
      <trkpt lat="43.59951" lon="5.51793">
        <ele>292.74115478951</ele>
        <time>2020-11-26T08:04:23Z</time>
      </trkpt>
      <trkpt lat="43.60003" lon="5.5173">
        <ele>292.45496523274</ele>
        <time>2020-11-26T08:04:24Z</time>
      </trkpt>
      <trkpt lat="43.60016" lon="5.51723">
        <ele>292.14403694805</ele>
        <time>2020-11-26T08:04:24Z</time>
      </trkpt>
      <trkpt lat="43.60056" lon="5.51718">
        <ele>291.81600832237</ele>
        <time>2020-11-26T08:04:25Z</time>
      </trkpt>
      <trkpt lat="43.60108" lon="5.51688">
        <ele>291.49677466274</ele>
        <time>2020-11-26T08:04:26Z</time>
      </trkpt>
      <trkpt lat="43.60121" lon="5.51684">
        <ele>291.30846696499</ele>
        <time>2020-11-26T08:04:27Z</time>
      </trkpt>
      <trkpt lat="43.60127" lon="5.51677">
        <ele>291.16251188112</ele>
        <time>2020-11-26T08:04:27Z</time>
      </trkpt>
      <trkpt lat="43.60186" lon="5.5164">
        <ele>291.04696446814</ele>
        <time>2020-11-26T08:04:28Z</time>
      </trkpt>
      <trkpt lat="43.6021" lon="5.51634">
        <ele>290.97141137204</ele>
        <time>2020-11-26T08:04:29Z</time>
      </trkpt>
      <trkpt lat="43.60225" lon="5.51634">
        <ele>290.88745225837</ele>
        <time>2020-11-26T08:04:29Z</time>
      </trkpt>
      <trkpt lat="43.6024" lon="5.51634">
        <ele>290.8324241253</ele>
        <time>2020-11-26T08:04:30Z</time>
      </trkpt>
      <trkpt lat="43.60246" lon="5.51637">
        <ele>290.79683355166</ele>
        <time>2020-11-26T08:04:31Z</time>
      </trkpt>
      <trkpt lat="43.60253" lon="5.51636">
        <ele>290.76423814235</ele>
        <time>2020-11-26T08:04:32Z</time>
      </trkpt>
      <trkpt lat="43.60259" lon="5.51631">
        <ele>290.71857677736</ele>
        <time>2020-11-26T08:04:32Z</time>
      </trkpt>
      <trkpt lat="43.60285" lon="5.51621">
        <ele>290.66087192062</ele>
        <time>2020-11-26T08:04:33Z</time>
      </trkpt>
      <trkpt lat="43.60292" lon="5.51616">
        <ele>290.63747267938</ele>
        <time>2020-11-26T08:04:34Z</time>
      </trkpt>
      <trkpt lat="43.60316" lon="5.51613">
        <ele>290.61487565862</ele>
        <time>2020-11-26T08:04:34Z</time>
      </trkpt>
      <trkpt lat="43.60326" lon="5.51612">
        <ele>290.57892222701</ele>
        <time>2020-11-26T08:04:35Z</time>
      </trkpt>
      <trkpt lat="43.60333" lon="5.5161">
        <ele>290.53201601213</ele>
        <time>2020-11-26T08:04:36Z</time>
      </trkpt>
      <trkpt lat="43.60358" lon="5.51616">
        <ele>290.46029396151</ele>
        <time>2020-11-26T08:04:37Z</time>
      </trkpt>
      <trkpt lat="43.60371" lon="5.51625">
        <ele>290.36128224815</ele>
        <time>2020-11-26T08:04:37Z</time>
      </trkpt>
      <trkpt lat="43.60384" lon="5.51631">
        <ele>290.25043278427</ele>
        <time>2020-11-26T08:04:38Z</time>
      </trkpt>
      <trkpt lat="43.60404" lon="5.51647">
        <ele>290.1178198067</ele>
        <time>2020-11-26T08:04:39Z</time>
      </trkpt>
      <trkpt lat="43.60424" lon="5.51657">
        <ele>289.99777599996</ele>
        <time>2020-11-26T08:04:40Z</time>
      </trkpt>
      <trkpt lat="43.60463" lon="5.51683">
        <ele>289.89396556664</ele>
        <time>2020-11-26T08:04:41Z</time>
      </trkpt>
      <trkpt lat="43.60463" lon="5.51683">
        <ele>289.69042463973</ele>
        <time>2020-11-26T08:04:41Z</time>
      </trkpt>
      <trkpt lat="43.60463" lon="5.51683">
        <ele>289.1934213038</ele>
        <time>2020-11-26T08:04:42Z</time>
      </trkpt>
      <trkpt lat="43.6047" lon="5.51686">
        <ele>288.91858500193</ele>
        <time>2020-11-26T08:04:43Z</time>
      </trkpt>
      <trkpt lat="43.60483" lon="5.51702">
        <ele>288.58230769062</ele>
        <time>2020-11-26T08:04:44Z</time>
      </trkpt>
      <trkpt lat="43.60496" lon="5.51712">
        <ele>288.24956898876</ele>
        <time>2020-11-26T08:04:44Z</time>
      </trkpt>
      <trkpt lat="43.60503" lon="5.51721">
        <ele>287.87181749594</ele>
        <time>2020-11-26T08:04:45Z</time>
      </trkpt>
      <trkpt lat="43.60516" lon="5.5173">
        <ele>287.51069533262</ele>
        <time>2020-11-26T08:04:46Z</time>
      </trkpt>
      <trkpt lat="43.60529" lon="5.51746">
        <ele>287.09966951687</ele>
        <time>2020-11-26T08:04:47Z</time>
      </trkpt>
      <trkpt lat="43.60539" lon="5.51766">
        <ele>286.67044406351</ele>
        <time>2020-11-26T08:04:48Z</time>
      </trkpt>
      <trkpt lat="43.60558" lon="5.5179">
        <ele>286.28399087528</ele>
        <time>2020-11-26T08:04:48Z</time>
      </trkpt>
      <trkpt lat="43.60624" lon="5.51853">
        <ele>285.72231196547</ele>
        <time>2020-11-26T08:04:49Z</time>
      </trkpt>
      <trkpt lat="43.60628" lon="5.51863">
        <ele>285.31803361195</ele>
        <time>2020-11-26T08:04:50Z</time>
      </trkpt>
      <trkpt lat="43.60674" lon="5.51906">
        <ele>284.86086894791</ele>
        <time>2020-11-26T08:04:51Z</time>
      </trkpt>
      <trkpt lat="43.60707" lon="5.51929">
        <ele>284.4719157412</ele>
        <time>2020-11-26T08:04:52Z</time>
      </trkpt>
      <trkpt lat="43.60714" lon="5.51939">
        <ele>284.20458870449</ele>
        <time>2020-11-26T08:04:52Z</time>
      </trkpt>
      <trkpt lat="43.60738" lon="5.51992">
        <ele>284.00744785451</ele>
        <time>2020-11-26T08:04:53Z</time>
      </trkpt>
      <trkpt lat="43.60736" lon="5.52001">
        <ele>283.89362461589</ele>
        <time>2020-11-26T08:04:54Z</time>
      </trkpt>
      <trkpt lat="43.6073" lon="5.52008">
        <ele>283.8769186233</ele>
        <time>2020-11-26T08:04:55Z</time>
      </trkpt>
      <trkpt lat="43.60717" lon="5.52005">
        <ele>283.90608075409</ele>
        <time>2020-11-26T08:04:56Z</time>
      </trkpt>
      <trkpt lat="43.60711" lon="5.52005">
        <ele>284.04125237361</ele>
        <time>2020-11-26T08:04:57Z</time>
      </trkpt>
      <trkpt lat="43.60705" lon="5.52012">
        <ele>284.28407197313</ele>
        <time>2020-11-26T08:04:58Z</time>
      </trkpt>
      <trkpt lat="43.60697" lon="5.52029">
        <ele>284.64762456026</ele>
        <time>2020-11-26T08:04:58Z</time>
      </trkpt>
      <trkpt lat="43.60699" lon="5.52038">
        <ele>285.10949922241</ele>
        <time>2020-11-26T08:04:59Z</time>
      </trkpt>
      <trkpt lat="43.60705" lon="5.52046">
        <ele>285.67203922133</ele>
        <time>2020-11-26T08:05:00Z</time>
      </trkpt>
      <trkpt lat="43.60743" lon="5.52055">
        <ele>286.41110515168</ele>
        <time>2020-11-26T08:05:01Z</time>
      </trkpt>
      <trkpt lat="43.60755" lon="5.52072">
        <ele>287.24762219495</ele>
        <time>2020-11-26T08:05:02Z</time>
      </trkpt>
      <trkpt lat="43.60757" lon="5.5208">
        <ele>288.11437177352</ele>
        <time>2020-11-26T08:05:03Z</time>
      </trkpt>
      <trkpt lat="43.60751" lon="5.52086">
        <ele>289.06293858591</ele>
        <time>2020-11-26T08:05:04Z</time>
      </trkpt>
      <trkpt lat="43.60739" lon="5.52088">
        <ele>290.06842423453</ele>
        <time>2020-11-26T08:05:04Z</time>
      </trkpt>
      <trkpt lat="43.60728" lon="5.52106">
        <ele>291.23088730207</ele>
        <time>2020-11-26T08:05:05Z</time>
      </trkpt>
      <trkpt lat="43.60725" lon="5.52115">
        <ele>292.45873261297</ele>
        <time>2020-11-26T08:05:06Z</time>
      </trkpt>
      <trkpt lat="43.60716" lon="5.52178">
        <ele>293.94855081406</ele>
        <time>2020-11-26T08:05:07Z</time>
      </trkpt>
      <trkpt lat="43.60713" lon="5.52187">
        <ele>295.33584663227</ele>
        <time>2020-11-26T08:05:08Z</time>
      </trkpt>
      <trkpt lat="43.6071" lon="5.52214">
        <ele>296.84433217109</ele>
        <time>2020-11-26T08:05:09Z</time>
      </trkpt>
      <trkpt lat="43.60701" lon="5.52284">
        <ele>298.72367444922</ele>
        <time>2020-11-26T08:05:10Z</time>
      </trkpt>
      <trkpt lat="43.60703" lon="5.52302">
        <ele>300.27814596379</ele>
        <time>2020-11-26T08:05:11Z</time>
      </trkpt>
      <trkpt lat="43.60703" lon="5.52311">
        <ele>301.87365422202</ele>
        <time>2020-11-26T08:05:12Z</time>
      </trkpt>
      <trkpt lat="43.607" lon="5.52319">
        <ele>303.52498307132</ele>
        <time>2020-11-26T08:05:13Z</time>
      </trkpt>
      <trkpt lat="43.607" lon="5.52329">
        <ele>305.1963697554</ele>
        <time>2020-11-26T08:05:13Z</time>
      </trkpt>
      <trkpt lat="43.60701" lon="5.52338">
        <ele>306.88026971906</ele>
        <time>2020-11-26T08:05:14Z</time>
      </trkpt>
      <trkpt lat="43.60706" lon="5.52355">
        <ele>308.56939039221</ele>
        <time>2020-11-26T08:05:15Z</time>
      </trkpt>
      <trkpt lat="43.60706" lon="5.52364">
        <ele>310.27728358874</ele>
        <time>2020-11-26T08:05:16Z</time>
      </trkpt>
      <trkpt lat="43.60703" lon="5.52381">
        <ele>312.02267242499</ele>
        <time>2020-11-26T08:05:17Z</time>
      </trkpt>
      <trkpt lat="43.607" lon="5.52435">
        <ele>313.80065210117</ele>
        <time>2020-11-26T08:05:18Z</time>
      </trkpt>
      <trkpt lat="43.60697" lon="5.52453">
        <ele>315.53519958235</ele>
        <time>2020-11-26T08:05:19Z</time>
      </trkpt>
      <trkpt lat="43.60699" lon="5.52462">
        <ele>317.25610156568</ele>
        <time>2020-11-26T08:05:20Z</time>
      </trkpt>
      <trkpt lat="43.60728" lon="5.52515">
        <ele>319.27936694747</ele>
        <time>2020-11-26T08:05:21Z</time>
      </trkpt>
      <trkpt lat="43.60734" lon="5.52516">
        <ele>320.94783571661</ele>
        <time>2020-11-26T08:05:22Z</time>
      </trkpt>
      <trkpt lat="43.60741" lon="5.52524">
        <ele>322.61259910894</ele>
        <time>2020-11-26T08:05:23Z</time>
      </trkpt>
      <trkpt lat="43.60747" lon="5.52528">
        <ele>324.2253078365</ele>
        <time>2020-11-26T08:05:24Z</time>
      </trkpt>
      <trkpt lat="43.60777" lon="5.52626">
        <ele>326.14037660579</ele>
        <time>2020-11-26T08:05:25Z</time>
      </trkpt>
      <trkpt lat="43.60781" lon="5.5267">
        <ele>327.71072826391</ele>
        <time>2020-11-26T08:05:26Z</time>
      </trkpt>
      <trkpt lat="43.60778" lon="5.52714">
        <ele>329.30693765399</ele>
        <time>2020-11-26T08:05:27Z</time>
      </trkpt>
      <trkpt lat="43.60785" lon="5.52722">
        <ele>330.63498395989</ele>
        <time>2020-11-26T08:05:28Z</time>
      </trkpt>
      <trkpt lat="43.60794" lon="5.52749">
        <ele>332.01265667814</ele>
        <time>2020-11-26T08:05:29Z</time>
      </trkpt>
      <trkpt lat="43.60798" lon="5.52803">
        <ele>333.29933187508</ele>
        <time>2020-11-26T08:05:30Z</time>
      </trkpt>
      <trkpt lat="43.60785" lon="5.52838">
        <ele>334.66293745469</ele>
        <time>2020-11-26T08:05:31Z</time>
      </trkpt>
      <trkpt lat="43.60782" lon="5.52874">
        <ele>335.83973499668</ele>
        <time>2020-11-26T08:05:32Z</time>
      </trkpt>
      <trkpt lat="43.60785" lon="5.52882">
        <ele>336.82619037585</ele>
        <time>2020-11-26T08:05:33Z</time>
      </trkpt>
      <trkpt lat="43.60804" lon="5.52904">
        <ele>337.63541505484</ele>
        <time>2020-11-26T08:05:34Z</time>
      </trkpt>
      <trkpt lat="43.60807" lon="5.52913">
        <ele>338.44306508766</ele>
        <time>2020-11-26T08:05:35Z</time>
      </trkpt>
      <trkpt lat="43.60811" lon="5.52957">
        <ele>339.20798785664</ele>
        <time>2020-11-26T08:05:36Z</time>
      </trkpt>
      <trkpt lat="43.60803" lon="5.5297">
        <ele>340.02187727522</ele>
        <time>2020-11-26T08:05:37Z</time>
      </trkpt>
      <trkpt lat="43.60803" lon="5.52984">
        <ele>340.63687088412</ele>
        <time>2020-11-26T08:05:38Z</time>
      </trkpt>
      <trkpt lat="43.60798" lon="5.52992">
        <ele>341.25931530865</ele>
        <time>2020-11-26T08:05:39Z</time>
      </trkpt>
      <trkpt lat="43.60798" lon="5.53001">
        <ele>341.72197097173</ele>
        <time>2020-11-26T08:05:40Z</time>
      </trkpt>
      <trkpt lat="43.60795" lon="5.5301">
        <ele>342.17657413778</ele>
        <time>2020-11-26T08:05:41Z</time>
      </trkpt>
      <trkpt lat="43.60798" lon="5.53019">
        <ele>342.47004409119</ele>
        <time>2020-11-26T08:05:42Z</time>
      </trkpt>
      <trkpt lat="43.60804" lon="5.53027">
        <ele>342.69223892595</ele>
        <time>2020-11-26T08:05:43Z</time>
      </trkpt>
      <trkpt lat="43.60808" lon="5.53036">
        <ele>342.93609443994</ele>
        <time>2020-11-26T08:05:44Z</time>
      </trkpt>
      <trkpt lat="43.6081" lon="5.53054">
        <ele>343.23902180181</ele>
        <time>2020-11-26T08:05:45Z</time>
      </trkpt>
      <trkpt lat="43.60806" lon="5.53098">
        <ele>343.59886049228</ele>
        <time>2020-11-26T08:05:46Z</time>
      </trkpt>
      <trkpt lat="43.60814" lon="5.53116">
        <ele>343.67957343541</ele>
        <time>2020-11-26T08:05:47Z</time>
      </trkpt>
      <trkpt lat="43.60827" lon="5.53123">
        <ele>343.67109940919</ele>
        <time>2020-11-26T08:05:48Z</time>
      </trkpt>
      <trkpt lat="43.6084" lon="5.53138">
        <ele>343.72797705924</ele>
        <time>2020-11-26T08:05:49Z</time>
      </trkpt>
      <trkpt lat="43.60848" lon="5.53173">
        <ele>343.97889046933</ele>
        <time>2020-11-26T08:05:50Z</time>
      </trkpt>
      <trkpt lat="43.60847" lon="5.53227">
        <ele>344.41646404115</ele>
        <time>2020-11-26T08:05:51Z</time>
      </trkpt>
      <trkpt lat="43.60851" lon="5.53236">
        <ele>344.83599718861</ele>
        <time>2020-11-26T08:05:52Z</time>
      </trkpt>
      <trkpt lat="43.60864" lon="5.53247">
        <ele>345.33211875335</ele>
        <time>2020-11-26T08:05:53Z</time>
      </trkpt>
      <trkpt lat="43.60877" lon="5.53256">
        <ele>345.92915140878</ele>
        <time>2020-11-26T08:05:54Z</time>
      </trkpt>
      <trkpt lat="43.60896" lon="5.53276">
        <ele>346.62410168442</ele>
        <time>2020-11-26T08:05:55Z</time>
      </trkpt>
      <trkpt lat="43.6091" lon="5.53302">
        <ele>347.32602291926</ele>
        <time>2020-11-26T08:05:56Z</time>
      </trkpt>
      <trkpt lat="43.60935" lon="5.5333">
        <ele>348.18913344604</ele>
        <time>2020-11-26T08:05:57Z</time>
      </trkpt>
      <trkpt lat="43.60954" lon="5.53343">
        <ele>348.97441662609</ele>
        <time>2020-11-26T08:05:58Z</time>
      </trkpt>
      <trkpt lat="43.60968" lon="5.53347">
        <ele>349.70288701322</ele>
        <time>2020-11-26T08:06:00Z</time>
      </trkpt>
      <trkpt lat="43.60974" lon="5.53347">
        <ele>350.39919213368</ele>
        <time>2020-11-26T08:06:01Z</time>
      </trkpt>
      <trkpt lat="43.6098" lon="5.53343">
        <ele>351.1005045293</ele>
        <time>2020-11-26T08:06:02Z</time>
      </trkpt>
      <trkpt lat="43.60997" lon="5.53316">
        <ele>351.7966499012</ele>
        <time>2020-11-26T08:06:03Z</time>
      </trkpt>
      <trkpt lat="43.61001" lon="5.53307">
        <ele>352.4813725046</ele>
        <time>2020-11-26T08:06:04Z</time>
      </trkpt>
      <trkpt lat="43.61014" lon="5.53291">
        <ele>353.22764604515</ele>
        <time>2020-11-26T08:06:05Z</time>
      </trkpt>
      <trkpt lat="43.6102" lon="5.53274">
        <ele>353.97899302246</ele>
        <time>2020-11-26T08:06:06Z</time>
      </trkpt>
      <trkpt lat="43.61025" lon="5.53265">
        <ele>354.73208944786</ele>
        <time>2020-11-26T08:06:07Z</time>
      </trkpt>
      <trkpt lat="43.6103" lon="5.53247">
        <ele>355.47707897037</ele>
        <time>2020-11-26T08:06:08Z</time>
      </trkpt>
      <trkpt lat="43.61035" lon="5.53238">
        <ele>356.25394116029</ele>
        <time>2020-11-26T08:06:09Z</time>
      </trkpt>
      <trkpt lat="43.61036" lon="5.53211">
        <ele>357.02171803916</ele>
        <time>2020-11-26T08:06:11Z</time>
      </trkpt>
      <trkpt lat="43.6104" lon="5.53203">
        <ele>357.85597351953</ele>
        <time>2020-11-26T08:06:12Z</time>
      </trkpt>
      <trkpt lat="43.61047" lon="5.53198">
        <ele>358.72046306001</ele>
        <time>2020-11-26T08:06:13Z</time>
      </trkpt>
      <trkpt lat="43.61053" lon="5.53197">
        <ele>359.616912713</ele>
        <time>2020-11-26T08:06:14Z</time>
      </trkpt>
      <trkpt lat="43.61051" lon="5.53188">
        <ele>360.48342226663</ele>
        <time>2020-11-26T08:06:15Z</time>
      </trkpt>
      <trkpt lat="43.61064" lon="5.53176">
        <ele>361.42418711666</ele>
        <time>2020-11-26T08:06:16Z</time>
      </trkpt>
      <trkpt lat="43.61086" lon="5.53165">
        <ele>362.50422468989</ele>
        <time>2020-11-26T08:06:17Z</time>
      </trkpt>
      <trkpt lat="43.61093" lon="5.53156">
        <ele>363.51317758846</ele>
        <time>2020-11-26T08:06:18Z</time>
      </trkpt>
      <trkpt lat="43.61099" lon="5.53147">
        <ele>364.5359569867</ele>
        <time>2020-11-26T08:06:20Z</time>
      </trkpt>
      <trkpt lat="43.61099" lon="5.53139">
        <ele>365.5467634878</ele>
        <time>2020-11-26T08:06:21Z</time>
      </trkpt>
      <trkpt lat="43.61106" lon="5.53133">
        <ele>366.66860203149</ele>
        <time>2020-11-26T08:06:22Z</time>
      </trkpt>
      <trkpt lat="43.61118" lon="5.53145">
        <ele>367.95041233024</ele>
        <time>2020-11-26T08:06:23Z</time>
      </trkpt>
      <trkpt lat="43.61157" lon="5.5316">
        <ele>369.3770312962</ele>
        <time>2020-11-26T08:06:24Z</time>
      </trkpt>
      <trkpt lat="43.61162" lon="5.53177">
        <ele>370.760434473</ele>
        <time>2020-11-26T08:06:25Z</time>
      </trkpt>
      <trkpt lat="43.61166" lon="5.53221">
        <ele>372.29453124197</ele>
        <time>2020-11-26T08:06:26Z</time>
      </trkpt>
      <trkpt lat="43.61182" lon="5.53274">
        <ele>373.56924505658</ele>
        <time>2020-11-26T08:06:28Z</time>
      </trkpt>
      <trkpt lat="43.61179" lon="5.53292">
        <ele>374.92198216442</ele>
        <time>2020-11-26T08:06:29Z</time>
      </trkpt>
      <trkpt lat="43.61176" lon="5.53301">
        <ele>376.3219571484</ele>
        <time>2020-11-26T08:06:30Z</time>
      </trkpt>
      <trkpt lat="43.6117" lon="5.53309">
        <ele>377.78657902726</ele>
        <time>2020-11-26T08:06:31Z</time>
      </trkpt>
      <trkpt lat="43.61157" lon="5.5332">
        <ele>379.1945466482</ele>
        <time>2020-11-26T08:06:32Z</time>
      </trkpt>
      <trkpt lat="43.61132" lon="5.53364">
        <ele>380.58598675332</ele>
        <time>2020-11-26T08:06:33Z</time>
      </trkpt>
      <trkpt lat="43.61123" lon="5.5339">
        <ele>382.05058644588</ele>
        <time>2020-11-26T08:06:35Z</time>
      </trkpt>
      <trkpt lat="43.61122" lon="5.53399">
        <ele>383.588768259</ele>
        <time>2020-11-26T08:06:36Z</time>
      </trkpt>
      <trkpt lat="43.61129" lon="5.53407">
        <ele>385.1590506621</ele>
        <time>2020-11-26T08:06:37Z</time>
      </trkpt>
      <trkpt lat="43.61133" lon="5.53416">
        <ele>386.73220315256</ele>
        <time>2020-11-26T08:06:38Z</time>
      </trkpt>
      <trkpt lat="43.61131" lon="5.53425">
        <ele>388.31042555954</ele>
        <time>2020-11-26T08:06:39Z</time>
      </trkpt>
      <trkpt lat="43.61119" lon="5.53435">
        <ele>389.84200429863</ele>
        <time>2020-11-26T08:06:41Z</time>
      </trkpt>
      <trkpt lat="43.61064" lon="5.53505">
        <ele>391.46184565113</ele>
        <time>2020-11-26T08:06:42Z</time>
      </trkpt>
      <trkpt lat="43.61059" lon="5.53523">
        <ele>393.0069890859</ele>
        <time>2020-11-26T08:06:43Z</time>
      </trkpt>
      <trkpt lat="43.61055" lon="5.53549">
        <ele>394.57751021511</ele>
        <time>2020-11-26T08:06:44Z</time>
      </trkpt>
      <trkpt lat="43.61055" lon="5.53567">
        <ele>396.12566197719</ele>
        <time>2020-11-26T08:06:45Z</time>
      </trkpt>
      <trkpt lat="43.6105" lon="5.53594">
        <ele>397.61521536721</ele>
        <time>2020-11-26T08:06:47Z</time>
      </trkpt>
      <trkpt lat="43.61039" lon="5.5361">
        <ele>398.87083647506</ele>
        <time>2020-11-26T08:06:48Z</time>
      </trkpt>
      <trkpt lat="43.61033" lon="5.53616">
        <ele>400.0388245049</ele>
        <time>2020-11-26T08:06:49Z</time>
      </trkpt>
      <trkpt lat="43.61019" lon="5.53642">
        <ele>401.31334341097</ele>
        <time>2020-11-26T08:06:50Z</time>
      </trkpt>
      <trkpt lat="43.61007" lon="5.53668">
        <ele>402.49948441389</ele>
        <time>2020-11-26T08:06:52Z</time>
      </trkpt>
      <trkpt lat="43.60956" lon="5.53734">
        <ele>404.20600142216</ele>
        <time>2020-11-26T08:06:53Z</time>
      </trkpt>
      <trkpt lat="43.60951" lon="5.53743">
        <ele>405.18092906667</ele>
        <time>2020-11-26T08:06:54Z</time>
      </trkpt>
      <trkpt lat="43.60938" lon="5.53756">
        <ele>406.10655350873</ele>
        <time>2020-11-26T08:06:55Z</time>
      </trkpt>
      <trkpt lat="43.60899" lon="5.53781">
        <ele>406.88773412916</ele>
        <time>2020-11-26T08:06:57Z</time>
      </trkpt>
      <trkpt lat="43.60879" lon="5.53786">
        <ele>407.6434542534</ele>
        <time>2020-11-26T08:06:58Z</time>
      </trkpt>
      <trkpt lat="43.60827" lon="5.53792">
        <ele>408.20139384326</ele>
        <time>2020-11-26T08:06:59Z</time>
      </trkpt>
      <trkpt lat="43.60821" lon="5.5379">
        <ele>408.87962280127</ele>
        <time>2020-11-26T08:07:00Z</time>
      </trkpt>
      <trkpt lat="43.60808" lon="5.53793">
        <ele>409.51265853741</ele>
        <time>2020-11-26T08:07:02Z</time>
      </trkpt>
      <trkpt lat="43.60802" lon="5.53797">
        <ele>410.11494315759</ele>
        <time>2020-11-26T08:07:03Z</time>
      </trkpt>
      <trkpt lat="43.60783" lon="5.53818">
        <ele>410.71241784237</ele>
        <time>2020-11-26T08:07:04Z</time>
      </trkpt>
      <trkpt lat="43.6077" lon="5.53826">
        <ele>411.34267762719</ele>
        <time>2020-11-26T08:07:05Z</time>
      </trkpt>
      <trkpt lat="43.60744" lon="5.53833">
        <ele>412.05453465921</ele>
        <time>2020-11-26T08:07:07Z</time>
      </trkpt>
      <trkpt lat="43.60725" lon="5.53842">
        <ele>412.72829223031</ele>
        <time>2020-11-26T08:07:08Z</time>
      </trkpt>
      <trkpt lat="43.6072" lon="5.53855">
        <ele>413.44180639336</ele>
        <time>2020-11-26T08:07:09Z</time>
      </trkpt>
      <trkpt lat="43.60722" lon="5.53877">
        <ele>414.15183443319</ele>
        <time>2020-11-26T08:07:11Z</time>
      </trkpt>
      <trkpt lat="43.60721" lon="5.53904">
        <ele>414.88917039169</ele>
        <time>2020-11-26T08:07:12Z</time>
      </trkpt>
      <trkpt lat="43.60724" lon="5.53913">
        <ele>415.57647638242</ele>
        <time>2020-11-26T08:07:13Z</time>
      </trkpt>
      <trkpt lat="43.60728" lon="5.53922">
        <ele>416.26957812791</ele>
        <time>2020-11-26T08:07:15Z</time>
      </trkpt>
      <trkpt lat="43.60735" lon="5.53928">
        <ele>416.94631718117</ele>
        <time>2020-11-26T08:07:16Z</time>
      </trkpt>
      <trkpt lat="43.6076" lon="5.53929">
        <ele>417.4755250371</ele>
        <time>2020-11-26T08:07:17Z</time>
      </trkpt>
      <trkpt lat="43.60773" lon="5.53943">
        <ele>418.20246903377</ele>
        <time>2020-11-26T08:07:19Z</time>
      </trkpt>
      <trkpt lat="43.60781" lon="5.53961">
        <ele>419.0495139406</ele>
        <time>2020-11-26T08:07:20Z</time>
      </trkpt>
      <trkpt lat="43.60784" lon="5.5398">
        <ele>419.96153290244</ele>
        <time>2020-11-26T08:07:21Z</time>
      </trkpt>
      <trkpt lat="43.60811" lon="5.54032">
        <ele>420.90499191255</ele>
        <time>2020-11-26T08:07:23Z</time>
      </trkpt>
      <trkpt lat="43.60812" lon="5.5405">
        <ele>421.72563252088</ele>
        <time>2020-11-26T08:07:24Z</time>
      </trkpt>
      <trkpt lat="43.60808" lon="5.54076">
        <ele>422.57532508957</ele>
        <time>2020-11-26T08:07:25Z</time>
      </trkpt>
      <trkpt lat="43.60802" lon="5.54094">
        <ele>423.38120397609</ele>
        <time>2020-11-26T08:07:27Z</time>
      </trkpt>
      <trkpt lat="43.60802" lon="5.54103">
        <ele>424.06750266724</ele>
        <time>2020-11-26T08:07:28Z</time>
      </trkpt>
      <trkpt lat="43.60794" lon="5.54129">
        <ele>424.84488337997</ele>
        <time>2020-11-26T08:07:29Z</time>
      </trkpt>
      <trkpt lat="43.60793" lon="5.54138">
        <ele>425.40960626792</ele>
        <time>2020-11-26T08:07:31Z</time>
      </trkpt>
      <trkpt lat="43.60796" lon="5.54147">
        <ele>425.92506350592</ele>
        <time>2020-11-26T08:07:32Z</time>
      </trkpt>
      <trkpt lat="43.60816" lon="5.54162">
        <ele>426.28982354834</ele>
        <time>2020-11-26T08:07:33Z</time>
      </trkpt>
      <trkpt lat="43.60822" lon="5.54164">
        <ele>426.67188583543</ele>
        <time>2020-11-26T08:07:35Z</time>
      </trkpt>
      <trkpt lat="43.60841" lon="5.54164">
        <ele>426.88002125106</ele>
        <time>2020-11-26T08:07:36Z</time>
      </trkpt>
      <trkpt lat="43.60855" lon="5.54172">
        <ele>427.15196301645</ele>
        <time>2020-11-26T08:07:37Z</time>
      </trkpt>
      <trkpt lat="43.60868" lon="5.54184">
        <ele>427.41803875344</ele>
        <time>2020-11-26T08:07:39Z</time>
      </trkpt>
      <trkpt lat="43.60874" lon="5.54187">
        <ele>427.63345275684</ele>
        <time>2020-11-26T08:07:40Z</time>
      </trkpt>
      <trkpt lat="43.6088" lon="5.54195">
        <ele>427.83868650753</ele>
        <time>2020-11-26T08:07:41Z</time>
      </trkpt>
      <trkpt lat="43.60886" lon="5.54213">
        <ele>428.02047905585</ele>
        <time>2020-11-26T08:07:43Z</time>
      </trkpt>
      <trkpt lat="43.60897" lon="5.54258">
        <ele>428.3193790265</ele>
        <time>2020-11-26T08:07:44Z</time>
      </trkpt>
      <trkpt lat="43.60896" lon="5.54275">
        <ele>428.35296993861</ele>
        <time>2020-11-26T08:07:46Z</time>
      </trkpt>
      <trkpt lat="43.60893" lon="5.54284">
        <ele>428.29127946033</ele>
        <time>2020-11-26T08:07:47Z</time>
      </trkpt>
      <trkpt lat="43.60892" lon="5.54293">
        <ele>428.15674240563</ele>
        <time>2020-11-26T08:07:48Z</time>
      </trkpt>
      <trkpt lat="43.60896" lon="5.54302">
        <ele>427.91871528212</ele>
        <time>2020-11-26T08:07:50Z</time>
      </trkpt>
      <trkpt lat="43.6091" lon="5.54313">
        <ele>427.51858983275</ele>
        <time>2020-11-26T08:07:51Z</time>
      </trkpt>
      <trkpt lat="43.60912" lon="5.54322">
        <ele>427.12825926879</ele>
        <time>2020-11-26T08:07:53Z</time>
      </trkpt>
      <trkpt lat="43.60911" lon="5.54331">
        <ele>426.72064407128</ele>
        <time>2020-11-26T08:07:54Z</time>
      </trkpt>
      <trkpt lat="43.60906" lon="5.5434">
        <ele>426.30768434544</ele>
        <time>2020-11-26T08:07:55Z</time>
      </trkpt>
      <trkpt lat="43.60881" lon="5.54412">
        <ele>425.77938990796</ele>
        <time>2020-11-26T08:07:57Z</time>
      </trkpt>
      <trkpt lat="43.60883" lon="5.5443">
        <ele>425.17422721356</ele>
        <time>2020-11-26T08:07:58Z</time>
      </trkpt>
      <trkpt lat="43.60901" lon="5.54457">
        <ele>424.45874844422</ele>
        <time>2020-11-26T08:08:00Z</time>
      </trkpt>
      <trkpt lat="43.60907" lon="5.54462">
        <ele>423.89932503779</ele>
        <time>2020-11-26T08:08:01Z</time>
      </trkpt>
      <trkpt lat="43.60913" lon="5.5447">
        <ele>423.36309138447</ele>
        <time>2020-11-26T08:08:02Z</time>
      </trkpt>
      <trkpt lat="43.60946" lon="5.54471">
        <ele>422.83950415692</ele>
        <time>2020-11-26T08:08:04Z</time>
      </trkpt>
      <trkpt lat="43.60972" lon="5.54465">
        <ele>422.5221061688</ele>
        <time>2020-11-26T08:08:05Z</time>
      </trkpt>
      <trkpt lat="43.60979" lon="5.54459">
        <ele>422.13497912566</ele>
        <time>2020-11-26T08:08:07Z</time>
      </trkpt>
      <trkpt lat="43.60989" lon="5.54432">
        <ele>421.71604935829</ele>
        <time>2020-11-26T08:08:08Z</time>
      </trkpt>
      <trkpt lat="43.60994" lon="5.54423">
        <ele>421.4360451109</ele>
        <time>2020-11-26T08:08:10Z</time>
      </trkpt>
      <trkpt lat="43.61001" lon="5.54416">
        <ele>421.24772524913</ele>
        <time>2020-11-26T08:08:11Z</time>
      </trkpt>
      <trkpt lat="43.61008" lon="5.54398">
        <ele>421.07466234128</ele>
        <time>2020-11-26T08:08:12Z</time>
      </trkpt>
      <trkpt lat="43.61021" lon="5.54383">
        <ele>421.04678576901</ele>
        <time>2020-11-26T08:08:14Z</time>
      </trkpt>
      <trkpt lat="43.61041" lon="5.54369">
        <ele>421.17822668361</ele>
        <time>2020-11-26T08:08:15Z</time>
      </trkpt>
      <trkpt lat="43.6106" lon="5.54348">
        <ele>421.37944877214</ele>
        <time>2020-11-26T08:08:17Z</time>
      </trkpt>
      <trkpt lat="43.61066" lon="5.54344">
        <ele>421.76815449102</ele>
        <time>2020-11-26T08:08:18Z</time>
      </trkpt>
      <trkpt lat="43.61073" lon="5.54343">
        <ele>422.29525689015</ele>
        <time>2020-11-26T08:08:20Z</time>
      </trkpt>
      <trkpt lat="43.61079" lon="5.54346">
        <ele>422.96424710113</ele>
        <time>2020-11-26T08:08:21Z</time>
      </trkpt>
      <trkpt lat="43.61086" lon="5.54355">
        <ele>423.7888095907</ele>
        <time>2020-11-26T08:08:23Z</time>
      </trkpt>
      <trkpt lat="43.61088" lon="5.54372">
        <ele>424.77040329268</ele>
        <time>2020-11-26T08:08:24Z</time>
      </trkpt>
      <trkpt lat="43.61095" lon="5.54369">
        <ele>425.78244786463</ele>
        <time>2020-11-26T08:08:26Z</time>
      </trkpt>
      <trkpt lat="43.61114" lon="5.54369">
        <ele>426.93995383002</ele>
        <time>2020-11-26T08:08:27Z</time>
      </trkpt>
      <trkpt lat="43.61146" lon="5.54378">
        <ele>428.41619384832</ele>
        <time>2020-11-26T08:08:29Z</time>
      </trkpt>
      <trkpt lat="43.61157" lon="5.54396">
        <ele>429.87339348978</ele>
        <time>2020-11-26T08:08:30Z</time>
      </trkpt>
      <trkpt lat="43.61163" lon="5.54401">
        <ele>431.34483606967</ele>
        <time>2020-11-26T08:08:31Z</time>
      </trkpt>
      <trkpt lat="43.61184" lon="5.54408">
        <ele>432.89565513808</ele>
        <time>2020-11-26T08:08:33Z</time>
      </trkpt>
      <trkpt lat="43.61197" lon="5.54416">
        <ele>434.47340553469</ele>
        <time>2020-11-26T08:08:34Z</time>
      </trkpt>
      <trkpt lat="43.61211" lon="5.54418">
        <ele>436.03572076362</ele>
        <time>2020-11-26T08:08:36Z</time>
      </trkpt>
      <trkpt lat="43.61217" lon="5.54423">
        <ele>437.64412787817</ele>
        <time>2020-11-26T08:08:37Z</time>
      </trkpt>
      <trkpt lat="43.61212" lon="5.54432">
        <ele>439.30206218435</ele>
        <time>2020-11-26T08:08:39Z</time>
      </trkpt>
      <trkpt lat="43.612" lon="5.54442">
        <ele>441.06678490974</ele>
        <time>2020-11-26T08:08:40Z</time>
      </trkpt>
      <trkpt lat="43.61186" lon="5.54447">
        <ele>442.77299265345</ele>
        <time>2020-11-26T08:08:42Z</time>
      </trkpt>
      <trkpt lat="43.6118" lon="5.54453">
        <ele>444.40151997876</ele>
        <time>2020-11-26T08:08:43Z</time>
      </trkpt>
      <trkpt lat="43.61166" lon="5.54497">
        <ele>446.36767036665</ele>
        <time>2020-11-26T08:08:45Z</time>
      </trkpt>
      <trkpt lat="43.61165" lon="5.54506">
        <ele>447.95300743892</ele>
        <time>2020-11-26T08:08:46Z</time>
      </trkpt>
      <trkpt lat="43.61169" lon="5.54542">
        <ele>449.51784394265</ele>
        <time>2020-11-26T08:08:48Z</time>
      </trkpt>
      <trkpt lat="43.61167" lon="5.54578">
        <ele>450.94534699156</ele>
        <time>2020-11-26T08:08:49Z</time>
      </trkpt>
      <trkpt lat="43.6116" lon="5.54604">
        <ele>452.35760861447</ele>
        <time>2020-11-26T08:08:51Z</time>
      </trkpt>
      <trkpt lat="43.61162" lon="5.5466">
        <ele>453.65583890573</ele>
        <time>2020-11-26T08:08:53Z</time>
      </trkpt>
      <trkpt lat="43.6117" lon="5.54676">
        <ele>454.55367214848</ele>
        <time>2020-11-26T08:08:54Z</time>
      </trkpt>
      <trkpt lat="43.61184" lon="5.54682">
        <ele>455.21539705772</ele>
        <time>2020-11-26T08:08:56Z</time>
      </trkpt>
      <trkpt lat="43.61195" lon="5.54699">
        <ele>455.86932576016</ele>
        <time>2020-11-26T08:08:57Z</time>
      </trkpt>
      <trkpt lat="43.61208" lon="5.54705">
        <ele>456.34016780819</ele>
        <time>2020-11-26T08:08:59Z</time>
      </trkpt>
      <trkpt lat="43.61208" lon="5.54705">
        <ele>456.73363745843</ele>
        <time>2020-11-26T08:09:00Z</time>
      </trkpt>
      <trkpt lat="43.61208" lon="5.54705">
        <ele>457.08951201536</ele>
        <time>2020-11-26T08:09:02Z</time>
      </trkpt>
      <trkpt lat="43.61234" lon="5.5471">
        <ele>456.89222115628</ele>
        <time>2020-11-26T08:09:03Z</time>
      </trkpt>
      <trkpt lat="43.61246" lon="5.54726">
        <ele>456.89953537648</ele>
        <time>2020-11-26T08:09:05Z</time>
      </trkpt>
      <trkpt lat="43.61279" lon="5.5475">
        <ele>456.6252177798</ele>
        <time>2020-11-26T08:09:06Z</time>
      </trkpt>
      <trkpt lat="43.61345" lon="5.54774">
        <ele>456.04676256216</ele>
        <time>2020-11-26T08:09:08Z</time>
      </trkpt>
      <trkpt lat="43.61358" lon="5.54774">
        <ele>455.44640838517</ele>
        <time>2020-11-26T08:09:10Z</time>
      </trkpt>
      <trkpt lat="43.61373" lon="5.54767">
        <ele>454.74406165661</ele>
        <time>2020-11-26T08:09:11Z</time>
      </trkpt>
      <trkpt lat="43.61396" lon="5.54767">
        <ele>453.99157304767</ele>
        <time>2020-11-26T08:09:13Z</time>
      </trkpt>
      <trkpt lat="43.61402" lon="5.54762">
        <ele>453.11289518482</ele>
        <time>2020-11-26T08:09:14Z</time>
      </trkpt>
      <trkpt lat="43.61435" lon="5.54754">
        <ele>452.17004952002</ele>
        <time>2020-11-26T08:09:16Z</time>
      </trkpt>
      <trkpt lat="43.61454" lon="5.54744">
        <ele>451.08523725355</ele>
        <time>2020-11-26T08:09:18Z</time>
      </trkpt>
      <trkpt lat="43.61484" lon="5.54743">
        <ele>449.8764988012</ele>
        <time>2020-11-26T08:09:19Z</time>
      </trkpt>
      <trkpt lat="43.61496" lon="5.54736">
        <ele>448.67596854338</ele>
        <time>2020-11-26T08:09:21Z</time>
      </trkpt>
      <trkpt lat="43.61564" lon="5.54716">
        <ele>447.29536039088</ele>
        <time>2020-11-26T08:09:22Z</time>
      </trkpt>
      <trkpt lat="43.61616" lon="5.54685">
        <ele>445.99844735274</ele>
        <time>2020-11-26T08:09:24Z</time>
      </trkpt>
      <trkpt lat="43.61635" lon="5.54662">
        <ele>444.65205469853</ele>
        <time>2020-11-26T08:09:26Z</time>
      </trkpt>
      <trkpt lat="43.61655" lon="5.54652">
        <ele>443.30006894449</ele>
        <time>2020-11-26T08:09:27Z</time>
      </trkpt>
      <trkpt lat="43.61661" lon="5.54651">
        <ele>442.00767334892</ele>
        <time>2020-11-26T08:09:29Z</time>
      </trkpt>
      <trkpt lat="43.61674" lon="5.54647">
        <ele>440.72233417033</ele>
        <time>2020-11-26T08:09:31Z</time>
      </trkpt>
      <trkpt lat="43.61688" lon="5.54647">
        <ele>439.43193380171</ele>
        <time>2020-11-26T08:09:32Z</time>
      </trkpt>
      <trkpt lat="43.61708" lon="5.54638">
        <ele>438.16669190671</ele>
        <time>2020-11-26T08:09:34Z</time>
      </trkpt>
      <trkpt lat="43.61747" lon="5.54636">
        <ele>436.94400591815</ele>
        <time>2020-11-26T08:09:35Z</time>
      </trkpt>
      <trkpt lat="43.61761" lon="5.54635">
        <ele>435.73860151898</ele>
        <time>2020-11-26T08:09:37Z</time>
      </trkpt>
      <trkpt lat="43.61781" lon="5.54649">
        <ele>434.59413908617</ele>
        <time>2020-11-26T08:09:39Z</time>
      </trkpt>
      <trkpt lat="43.61873" lon="5.54666">
        <ele>433.23620104529</ele>
        <time>2020-11-26T08:09:40Z</time>
      </trkpt>
      <trkpt lat="43.6188" lon="5.54674">
        <ele>432.25768517148</ele>
        <time>2020-11-26T08:09:42Z</time>
      </trkpt>
      <trkpt lat="43.61887" lon="5.54678">
        <ele>431.33893725985</ele>
        <time>2020-11-26T08:09:44Z</time>
      </trkpt>
      <trkpt lat="43.61893" lon="5.54679">
        <ele>430.51425246146</ele>
        <time>2020-11-26T08:09:46Z</time>
      </trkpt>
      <trkpt lat="43.61927" lon="5.54669">
        <ele>429.78112609889</ele>
        <time>2020-11-26T08:09:47Z</time>
      </trkpt>
      <trkpt lat="43.61939" lon="5.5466">
        <ele>429.12768750897</ele>
        <time>2020-11-26T08:09:49Z</time>
      </trkpt>
      <trkpt lat="43.61952" lon="5.54656">
        <ele>428.64573809934</ele>
        <time>2020-11-26T08:09:51Z</time>
      </trkpt>
      <trkpt lat="43.62004" lon="5.54635">
        <ele>428.22902362446</ele>
        <time>2020-11-26T08:09:52Z</time>
      </trkpt>
      <trkpt lat="43.62011" lon="5.54627">
        <ele>427.99022700269</ele>
        <time>2020-11-26T08:09:54Z</time>
      </trkpt>
      <trkpt lat="43.62023" lon="5.54616">
        <ele>427.89873507002</ele>
        <time>2020-11-26T08:09:56Z</time>
      </trkpt>
      <trkpt lat="43.62032" lon="5.54598">
        <ele>427.9383363814</ele>
        <time>2020-11-26T08:09:57Z</time>
      </trkpt>
      <trkpt lat="43.62035" lon="5.54589">
        <ele>428.05534583788</ele>
        <time>2020-11-26T08:09:59Z</time>
      </trkpt>
      <trkpt lat="43.62047" lon="5.54576">
        <ele>428.41312108556</ele>
        <time>2020-11-26T08:10:01Z</time>
      </trkpt>
      <trkpt lat="43.62065" lon="5.5457">
        <ele>428.89767933868</ele>
        <time>2020-11-26T08:10:03Z</time>
      </trkpt>
      <trkpt lat="43.6208" lon="5.5457">
        <ele>429.35038290546</ele>
        <time>2020-11-26T08:10:04Z</time>
      </trkpt>
      <trkpt lat="43.62085" lon="5.54562">
        <ele>429.93214525822</ele>
        <time>2020-11-26T08:10:06Z</time>
      </trkpt>
      <trkpt lat="43.62098" lon="5.54558">
        <ele>430.50658234066</ele>
        <time>2020-11-26T08:10:08Z</time>
      </trkpt>
      <trkpt lat="43.62104" lon="5.5455">
        <ele>431.16657334371</ele>
        <time>2020-11-26T08:10:10Z</time>
      </trkpt>
      <trkpt lat="43.62106" lon="5.54541">
        <ele>431.91242687702</ele>
        <time>2020-11-26T08:10:11Z</time>
      </trkpt>
      <trkpt lat="43.62106" lon="5.54523">
        <ele>432.7332611288</ele>
        <time>2020-11-26T08:10:13Z</time>
      </trkpt>
      <trkpt lat="43.62107" lon="5.54514">
        <ele>433.54295126</ele>
        <time>2020-11-26T08:10:15Z</time>
      </trkpt>
      <trkpt lat="43.62134" lon="5.54491">
        <ele>434.27823550488</ele>
        <time>2020-11-26T08:10:17Z</time>
      </trkpt>
      <trkpt lat="43.62147" lon="5.54489">
        <ele>435.21204298256</ele>
        <time>2020-11-26T08:10:18Z</time>
      </trkpt>
      <trkpt lat="43.62185" lon="5.54493">
        <ele>436.1015876938</ele>
        <time>2020-11-26T08:10:20Z</time>
      </trkpt>
      <trkpt lat="43.62192" lon="5.54498">
        <ele>437.19069414651</ele>
        <time>2020-11-26T08:10:22Z</time>
      </trkpt>
      <trkpt lat="43.62198" lon="5.54499">
        <ele>438.29656297488</ele>
        <time>2020-11-26T08:10:24Z</time>
      </trkpt>
      <trkpt lat="43.62206" lon="5.54517">
        <ele>439.56907706194</ele>
        <time>2020-11-26T08:10:25Z</time>
      </trkpt>
      <trkpt lat="43.62206" lon="5.54525">
        <ele>440.81811879502</ele>
        <time>2020-11-26T08:10:27Z</time>
      </trkpt>
      <trkpt lat="43.62212" lon="5.54534">
        <ele>442.12832045377</ele>
        <time>2020-11-26T08:10:29Z</time>
      </trkpt>
      <trkpt lat="43.62214" lon="5.54543">
        <ele>443.47210054644</ele>
        <time>2020-11-26T08:10:31Z</time>
      </trkpt>
      <trkpt lat="43.62227" lon="5.54552">
        <ele>444.86877820596</ele>
        <time>2020-11-26T08:10:32Z</time>
      </trkpt>
      <trkpt lat="43.62253" lon="5.54586">
        <ele>446.47848761418</ele>
        <time>2020-11-26T08:10:34Z</time>
      </trkpt>
      <trkpt lat="43.62256" lon="5.54603">
        <ele>447.78705719201</ele>
        <time>2020-11-26T08:10:36Z</time>
      </trkpt>
      <trkpt lat="43.62269" lon="5.5462">
        <ele>449.08050627671</ele>
        <time>2020-11-26T08:10:38Z</time>
      </trkpt>
      <trkpt lat="43.62275" lon="5.54622">
        <ele>450.39357296095</ele>
        <time>2020-11-26T08:10:40Z</time>
      </trkpt>
      <trkpt lat="43.62281" lon="5.54622">
        <ele>451.69816371419</ele>
        <time>2020-11-26T08:10:41Z</time>
      </trkpt>
      <trkpt lat="43.6232" lon="5.54604">
        <ele>453.1627198095</ele>
        <time>2020-11-26T08:10:43Z</time>
      </trkpt>
      <trkpt lat="43.62327" lon="5.54604">
        <ele>454.41259636721</ele>
        <time>2020-11-26T08:10:45Z</time>
      </trkpt>
      <trkpt lat="43.62333" lon="5.54599">
        <ele>455.60565392239</ele>
        <time>2020-11-26T08:10:47Z</time>
      </trkpt>
      <trkpt lat="43.62346" lon="5.54597">
        <ele>456.69065500777</ele>
        <time>2020-11-26T08:10:49Z</time>
      </trkpt>
      <trkpt lat="43.62356" lon="5.54601">
        <ele>457.65792926875</ele>
        <time>2020-11-26T08:10:50Z</time>
      </trkpt>
      <trkpt lat="43.62366" lon="5.54602">
        <ele>458.51847330956</ele>
        <time>2020-11-26T08:10:52Z</time>
      </trkpt>
      <trkpt lat="43.6245" lon="5.54582">
        <ele>458.97734660618</ele>
        <time>2020-11-26T08:10:54Z</time>
      </trkpt>
      <trkpt lat="43.62456" lon="5.54574">
        <ele>459.64235909879</ele>
        <time>2020-11-26T08:10:56Z</time>
      </trkpt>
      <trkpt lat="43.62458" lon="5.54566">
        <ele>460.19383043082</ele>
        <time>2020-11-26T08:10:58Z</time>
      </trkpt>
      <trkpt lat="43.62462" lon="5.54557">
        <ele>460.62520854206</ele>
        <time>2020-11-26T08:10:59Z</time>
      </trkpt>
      <trkpt lat="43.62494" lon="5.54517">
        <ele>461.13157065658</ele>
        <time>2020-11-26T08:11:01Z</time>
      </trkpt>
      <trkpt lat="43.62501" lon="5.54513">
        <ele>461.40780290223</ele>
        <time>2020-11-26T08:11:03Z</time>
      </trkpt>
      <trkpt lat="43.62532" lon="5.54495">
        <ele>461.68662394173</ele>
        <time>2020-11-26T08:11:05Z</time>
      </trkpt>
      <trkpt lat="43.6259" lon="5.54431">
        <ele>462.26728497705</ele>
        <time>2020-11-26T08:11:07Z</time>
      </trkpt>
      <trkpt lat="43.62597" lon="5.54429">
        <ele>461.73666497721</ele>
        <time>2020-11-26T08:11:09Z</time>
      </trkpt>
      <trkpt lat="43.62603" lon="5.54423">
        <ele>460.97594158259</ele>
        <time>2020-11-26T08:11:11Z</time>
      </trkpt>
      <trkpt lat="43.6261" lon="5.54421">
        <ele>459.88068486766</ele>
        <time>2020-11-26T08:11:12Z</time>
      </trkpt>
      <trkpt lat="43.62664" lon="5.54462">
        <ele>458.12925243124</ele>
        <time>2020-11-26T08:11:14Z</time>
      </trkpt>
      <trkpt lat="43.62671" lon="5.54475">
        <ele>456.32824185627</ele>
        <time>2020-11-26T08:11:16Z</time>
      </trkpt>
      <trkpt lat="43.62684" lon="5.54489">
        <ele>454.10381809715</ele>
        <time>2020-11-26T08:11:18Z</time>
      </trkpt>
      <trkpt lat="43.62697" lon="5.54496">
        <ele>451.72389509107</ele>
        <time>2020-11-26T08:11:20Z</time>
      </trkpt>
      <trkpt lat="43.62718" lon="5.54521">
        <ele>448.74705992017</ele>
        <time>2020-11-26T08:11:22Z</time>
      </trkpt>
      <trkpt lat="43.62722" lon="5.54529">
        <ele>445.93483885506</ele>
        <time>2020-11-26T08:11:24Z</time>
      </trkpt>
      <trkpt lat="43.62728" lon="5.54536">
        <ele>442.94793314636</ele>
        <time>2020-11-26T08:11:26Z</time>
      </trkpt>
      <trkpt lat="43.62734" lon="5.54545">
        <ele>439.75216308044</ele>
        <time>2020-11-26T08:11:27Z</time>
      </trkpt>
      <trkpt lat="43.62753" lon="5.54561">
        <ele>436.20930551896</ele>
        <time>2020-11-26T08:11:29Z</time>
      </trkpt>
      <trkpt lat="43.62786" lon="5.54579">
        <ele>432.28788117817</ele>
        <time>2020-11-26T08:11:31Z</time>
      </trkpt>
      <trkpt lat="43.62813" lon="5.54602">
        <ele>428.45063701737</ele>
        <time>2020-11-26T08:11:33Z</time>
      </trkpt>
      <trkpt lat="43.62819" lon="5.54606">
        <ele>424.84151720774</ele>
        <time>2020-11-26T08:11:35Z</time>
      </trkpt>
      <trkpt lat="43.62826" lon="5.54606">
        <ele>421.18289027721</ele>
        <time>2020-11-26T08:11:37Z</time>
      </trkpt>
      <trkpt lat="43.62832" lon="5.54604">
        <ele>417.43188034053</ele>
        <time>2020-11-26T08:11:39Z</time>
      </trkpt>
      <trkpt lat="43.62865" lon="5.54603">
        <ele>413.40922261383</ele>
        <time>2020-11-26T08:11:41Z</time>
      </trkpt>
      <trkpt lat="43.62891" lon="5.54591">
        <ele>409.4361780426</ele>
        <time>2020-11-26T08:11:43Z</time>
      </trkpt>
      <trkpt lat="43.6291" lon="5.54592">
        <ele>405.39122930338</ele>
        <time>2020-11-26T08:11:45Z</time>
      </trkpt>
      <trkpt lat="43.62928" lon="5.54594">
        <ele>401.28228671909</ele>
        <time>2020-11-26T08:11:47Z</time>
      </trkpt>
      <trkpt lat="43.62955" lon="5.54616">
        <ele>397.07606862524</ele>
        <time>2020-11-26T08:11:49Z</time>
      </trkpt>
      <trkpt lat="43.62971" lon="5.54643">
        <ele>392.87592496567</ele>
        <time>2020-11-26T08:11:51Z</time>
      </trkpt>
      <trkpt lat="43.62975" lon="5.54652">
        <ele>388.70610107622</ele>
        <time>2020-11-26T08:11:52Z</time>
      </trkpt>
      <trkpt lat="43.63011" lon="5.547">
        <ele>384.07827304471</ele>
        <time>2020-11-26T08:11:54Z</time>
      </trkpt>
      <trkpt lat="43.63018" lon="5.54702">
        <ele>379.83978903901</ele>
        <time>2020-11-26T08:11:56Z</time>
      </trkpt>
      <trkpt lat="43.63024" lon="5.54707">
        <ele>375.59083052873</ele>
        <time>2020-11-26T08:11:58Z</time>
      </trkpt>
      <trkpt lat="43.63044" lon="5.54706">
        <ele>371.21069416202</ele>
        <time>2020-11-26T08:12:00Z</time>
      </trkpt>
      <trkpt lat="43.63071" lon="5.54717">
        <ele>366.75775557035</ele>
        <time>2020-11-26T08:12:02Z</time>
      </trkpt>
      <trkpt lat="43.63078" lon="5.54713">
        <ele>362.58798980278</ele>
        <time>2020-11-26T08:12:04Z</time>
      </trkpt>
      <trkpt lat="43.63111" lon="5.54711">
        <ele>358.04506752501</ele>
        <time>2020-11-26T08:12:06Z</time>
      </trkpt>
      <trkpt lat="43.63118" lon="5.54706">
        <ele>353.89343698477</ele>
        <time>2020-11-26T08:12:08Z</time>
      </trkpt>
      <trkpt lat="43.63124" lon="5.54703">
        <ele>349.84937677693</ele>
        <time>2020-11-26T08:12:10Z</time>
      </trkpt>
      <trkpt lat="43.63137" lon="5.54694">
        <ele>345.89838917927</ele>
        <time>2020-11-26T08:12:12Z</time>
      </trkpt>
      <trkpt lat="43.63149" lon="5.54676">
        <ele>341.82954753144</ele>
        <time>2020-11-26T08:12:14Z</time>
      </trkpt>
      <trkpt lat="43.63164" lon="5.5465">
        <ele>337.85283514794</ele>
        <time>2020-11-26T08:12:16Z</time>
      </trkpt>
      <trkpt lat="43.63177" lon="5.54636">
        <ele>333.98334984813</ele>
        <time>2020-11-26T08:12:18Z</time>
      </trkpt>
      <trkpt lat="43.632" lon="5.54623">
        <ele>330.1208269463</ele>
        <time>2020-11-26T08:12:20Z</time>
      </trkpt>
      <trkpt lat="43.63221" lon="5.5463">
        <ele>326.41788290934</ele>
        <time>2020-11-26T08:12:22Z</time>
      </trkpt>
      <trkpt lat="43.63227" lon="5.54639">
        <ele>323.15586843308</ele>
        <time>2020-11-26T08:12:24Z</time>
      </trkpt>
      <trkpt lat="43.63234" lon="5.54644">
        <ele>320.03699221497</ele>
        <time>2020-11-26T08:12:26Z</time>
      </trkpt>
      <trkpt lat="43.63261" lon="5.54654">
        <ele>316.76266335126</ele>
        <time>2020-11-26T08:12:28Z</time>
      </trkpt>
      <trkpt lat="43.63267" lon="5.54663">
        <ele>314.08124821633</ele>
        <time>2020-11-26T08:12:30Z</time>
      </trkpt>
      <trkpt lat="43.6328" lon="5.54669">
        <ele>311.53975562652</ele>
        <time>2020-11-26T08:12:32Z</time>
      </trkpt>
      <trkpt lat="43.63293" lon="5.54682">
        <ele>309.29162015555</ele>
        <time>2020-11-26T08:12:34Z</time>
      </trkpt>
      <trkpt lat="43.63299" lon="5.54685">
        <ele>307.30103170132</ele>
        <time>2020-11-26T08:12:36Z</time>
      </trkpt>
      <trkpt lat="43.63306" lon="5.54691">
        <ele>305.54937981914</ele>
        <time>2020-11-26T08:12:38Z</time>
      </trkpt>
      <trkpt lat="43.63334" lon="5.54697">
        <ele>303.96138606198</ele>
        <time>2020-11-26T08:12:40Z</time>
      </trkpt>
      <trkpt lat="43.63353" lon="5.54691">
        <ele>302.66529465385</ele>
        <time>2020-11-26T08:12:42Z</time>
      </trkpt>
      <trkpt lat="43.6336" lon="5.54691">
        <ele>301.63133679325</ele>
        <time>2020-11-26T08:12:44Z</time>
      </trkpt>
      <trkpt lat="43.63399" lon="5.54681">
        <ele>300.61421529037</ele>
        <time>2020-11-26T08:12:46Z</time>
      </trkpt>
      <trkpt lat="43.63406" lon="5.54675">
        <ele>299.9451852589</ele>
        <time>2020-11-26T08:12:48Z</time>
      </trkpt>
      <trkpt lat="43.6341" lon="5.54666">
        <ele>299.50965288522</ele>
        <time>2020-11-26T08:12:50Z</time>
      </trkpt>
      <trkpt lat="43.63409" lon="5.54657">
        <ele>299.29996700951</ele>
        <time>2020-11-26T08:12:53Z</time>
      </trkpt>
      <trkpt lat="43.634" lon="5.54613">
        <ele>299.34911009008</ele>
        <time>2020-11-26T08:12:55Z</time>
      </trkpt>
      <trkpt lat="43.63387" lon="5.54587">
        <ele>299.65038597617</ele>
        <time>2020-11-26T08:12:57Z</time>
      </trkpt>
      <trkpt lat="43.63384" lon="5.54578">
        <ele>300.00882501488</ele>
        <time>2020-11-26T08:12:59Z</time>
      </trkpt>
      <trkpt lat="43.634" lon="5.54552">
        <ele>300.48986983071</ele>
        <time>2020-11-26T08:13:01Z</time>
      </trkpt>
      <trkpt lat="43.63407" lon="5.54551">
        <ele>301.06566453491</ele>
        <time>2020-11-26T08:13:03Z</time>
      </trkpt>
      <trkpt lat="43.6342" lon="5.54556">
        <ele>301.69646194892</ele>
        <time>2020-11-26T08:13:05Z</time>
      </trkpt>
      <trkpt lat="43.63426" lon="5.54554">
        <ele>302.46510446622</ele>
        <time>2020-11-26T08:13:07Z</time>
      </trkpt>
      <trkpt lat="43.63432" lon="5.54545">
        <ele>303.33247183817</ele>
        <time>2020-11-26T08:13:09Z</time>
      </trkpt>
      <trkpt lat="43.63439" lon="5.54541">
        <ele>304.250136524</ele>
        <time>2020-11-26T08:13:11Z</time>
      </trkpt>
      <trkpt lat="43.63457" lon="5.5452">
        <ele>305.37671796358</ele>
        <time>2020-11-26T08:13:13Z</time>
      </trkpt>
      <trkpt lat="43.63465" lon="5.54521">
        <ele>306.36881770034</ele>
        <time>2020-11-26T08:13:15Z</time>
      </trkpt>
      <trkpt lat="43.63472" lon="5.54523">
        <ele>307.32973184519</ele>
        <time>2020-11-26T08:13:17Z</time>
      </trkpt>
      <trkpt lat="43.63478" lon="5.54528">
        <ele>308.25396860314</ele>
        <time>2020-11-26T08:13:19Z</time>
      </trkpt>
      <trkpt lat="43.63484" lon="5.54523">
        <ele>309.17924115459</ele>
        <time>2020-11-26T08:13:22Z</time>
      </trkpt>
      <trkpt lat="43.63497" lon="5.54522">
        <ele>310.05381090818</ele>
        <time>2020-11-26T08:13:24Z</time>
      </trkpt>
      <trkpt lat="43.63505" lon="5.54523">
        <ele>310.85546750075</ele>
        <time>2020-11-26T08:13:26Z</time>
      </trkpt>
      <trkpt lat="43.63525" lon="5.54531">
        <ele>311.54734665014</ele>
        <time>2020-11-26T08:13:28Z</time>
      </trkpt>
      <trkpt lat="43.63532" lon="5.54531">
        <ele>312.16583160825</ele>
        <time>2020-11-26T08:13:30Z</time>
      </trkpt>
      <trkpt lat="43.63538" lon="5.54534">
        <ele>312.67680506092</ele>
        <time>2020-11-26T08:13:32Z</time>
      </trkpt>
      <trkpt lat="43.63544" lon="5.54542">
        <ele>313.03770000207</ele>
        <time>2020-11-26T08:13:34Z</time>
      </trkpt>
      <trkpt lat="43.63557" lon="5.5455">
        <ele>313.31614009986</ele>
        <time>2020-11-26T08:13:36Z</time>
      </trkpt>
      <trkpt lat="43.63577" lon="5.5455">
        <ele>313.45813163749</ele>
        <time>2020-11-26T08:13:38Z</time>
      </trkpt>
      <trkpt lat="43.6359" lon="5.54542">
        <ele>313.45030356889</ele>
        <time>2020-11-26T08:13:40Z</time>
      </trkpt>
      <trkpt lat="43.63611" lon="5.54535">
        <ele>313.25363705477</ele>
        <time>2020-11-26T08:13:43Z</time>
      </trkpt>
      <trkpt lat="43.63656" lon="5.54495">
        <ele>313.25991646731</ele>
        <time>2020-11-26T08:13:45Z</time>
      </trkpt>
      <trkpt lat="43.63679" lon="5.54461">
        <ele>312.94651933301</ele>
        <time>2020-11-26T08:13:47Z</time>
      </trkpt>
      <trkpt lat="43.63704" lon="5.54437">
        <ele>312.19061652988</ele>
        <time>2020-11-26T08:13:49Z</time>
      </trkpt>
      <trkpt lat="43.63712" lon="5.54419">
        <ele>311.41471377432</ele>
        <time>2020-11-26T08:13:51Z</time>
      </trkpt>
      <trkpt lat="43.63725" lon="5.54399">
        <ele>310.36610194221</ele>
        <time>2020-11-26T08:13:53Z</time>
      </trkpt>
      <trkpt lat="43.63736" lon="5.54393">
        <ele>309.18847790425</ele>
        <time>2020-11-26T08:13:55Z</time>
      </trkpt>
      <trkpt lat="43.63747" lon="5.54374">
        <ele>307.81755825381</ele>
        <time>2020-11-26T08:13:57Z</time>
      </trkpt>
      <trkpt lat="43.63767" lon="5.54357">
        <ele>306.33219999651</ele>
        <time>2020-11-26T08:14:00Z</time>
      </trkpt>
      <trkpt lat="43.63773" lon="5.54349">
        <ele>304.88329800817</ele>
        <time>2020-11-26T08:14:02Z</time>
      </trkpt>
      <trkpt lat="43.63779" lon="5.5434">
        <ele>303.31576866975</ele>
        <time>2020-11-26T08:14:04Z</time>
      </trkpt>
      <trkpt lat="43.63798" lon="5.54328">
        <ele>301.71090024552</ele>
        <time>2020-11-26T08:14:06Z</time>
      </trkpt>
      <trkpt lat="43.63808" lon="5.54304">
        <ele>299.94173316817</ele>
        <time>2020-11-26T08:14:08Z</time>
      </trkpt>
      <trkpt lat="43.63809" lon="5.54292">
        <ele>298.22880052577</ele>
        <time>2020-11-26T08:14:10Z</time>
      </trkpt>
      <trkpt lat="43.63814" lon="5.54283">
        <ele>296.53304325415</ele>
        <time>2020-11-26T08:14:13Z</time>
      </trkpt>
      <trkpt lat="43.63816" lon="5.54264">
        <ele>294.76549079784</ele>
        <time>2020-11-26T08:14:15Z</time>
      </trkpt>
      <trkpt lat="43.63824" lon="5.54247">
        <ele>293.01247371091</ele>
        <time>2020-11-26T08:14:17Z</time>
      </trkpt>
      <trkpt lat="43.63829" lon="5.5415">
        <ele>291.08310098896</ele>
        <time>2020-11-26T08:14:19Z</time>
      </trkpt>
      <trkpt lat="43.63829" lon="5.54138">
        <ele>289.47538055616</ele>
        <time>2020-11-26T08:14:21Z</time>
      </trkpt>
      <trkpt lat="43.63827" lon="5.54128">
        <ele>287.94318227406</ele>
        <time>2020-11-26T08:14:23Z</time>
      </trkpt>
      <trkpt lat="43.63826" lon="5.54119">
        <ele>286.47440675396</ele>
        <time>2020-11-26T08:14:26Z</time>
      </trkpt>
      <trkpt lat="43.63821" lon="5.5411">
        <ele>285.13759350152</ele>
        <time>2020-11-26T08:14:28Z</time>
      </trkpt>
      <trkpt lat="43.63819" lon="5.54101">
        <ele>283.88131297175</ele>
        <time>2020-11-26T08:14:30Z</time>
      </trkpt>
      <trkpt lat="43.63817" lon="5.54082">
        <ele>282.71164742033</ele>
        <time>2020-11-26T08:14:32Z</time>
      </trkpt>
      <trkpt lat="43.63808" lon="5.54017">
        <ele>281.50928570376</ele>
        <time>2020-11-26T08:14:34Z</time>
      </trkpt>
      <trkpt lat="43.63808" lon="5.54">
        <ele>280.60750430173</ele>
        <time>2020-11-26T08:14:37Z</time>
      </trkpt>
      <trkpt lat="43.63798" lon="5.53964">
        <ele>279.70108874795</ele>
        <time>2020-11-26T08:14:39Z</time>
      </trkpt>
      <trkpt lat="43.63797" lon="5.53833">
        <ele>278.87831712585</ele>
        <time>2020-11-26T08:14:41Z</time>
      </trkpt>
      <trkpt lat="43.63799" lon="5.53823">
        <ele>278.54119662061</ele>
        <time>2020-11-26T08:14:43Z</time>
      </trkpt>
      <trkpt lat="43.63797" lon="5.53814">
        <ele>278.38220548131</ele>
        <time>2020-11-26T08:14:46Z</time>
      </trkpt>
      <trkpt lat="43.63785" lon="5.53788">
        <ele>278.45393771453</ele>
        <time>2020-11-26T08:14:48Z</time>
      </trkpt>
      <trkpt lat="43.63771" lon="5.53777">
        <ele>278.7357449905</ele>
        <time>2020-11-26T08:14:50Z</time>
      </trkpt>
      <trkpt lat="43.63758" lon="5.53774">
        <ele>279.18179007767</ele>
        <time>2020-11-26T08:14:52Z</time>
      </trkpt>
      <trkpt lat="43.63732" lon="5.53774">
        <ele>279.97577963949</ele>
        <time>2020-11-26T08:14:55Z</time>
      </trkpt>
      <trkpt lat="43.6368" lon="5.53739">
        <ele>280.95230712952</ele>
        <time>2020-11-26T08:14:57Z</time>
      </trkpt>
      <trkpt lat="43.6363" lon="5.53735">
        <ele>281.97168981549</ele>
        <time>2020-11-26T08:14:59Z</time>
      </trkpt>
      <trkpt lat="43.63634" lon="5.53716">
        <ele>282.74532601455</ele>
        <time>2020-11-26T08:15:01Z</time>
      </trkpt>
      <trkpt lat="43.63629" lon="5.53593">
        <ele>283.62601419842</ele>
        <time>2020-11-26T08:15:04Z</time>
      </trkpt>
      <trkpt lat="43.63632" lon="5.53584">
        <ele>284.68302362058</ele>
        <time>2020-11-26T08:15:06Z</time>
      </trkpt>
      <trkpt lat="43.63625" lon="5.53577">
        <ele>285.80945401397</ele>
        <time>2020-11-26T08:15:08Z</time>
      </trkpt>
      <trkpt lat="43.63605" lon="5.53579">
        <ele>286.96677746696</ele>
        <time>2020-11-26T08:15:11Z</time>
      </trkpt>
      <trkpt lat="43.63599" lon="5.53581">
        <ele>288.10513123948</ele>
        <time>2020-11-26T08:15:13Z</time>
      </trkpt>
      <trkpt lat="43.63573" lon="5.53579">
        <ele>289.37840250162</ele>
        <time>2020-11-26T08:15:15Z</time>
      </trkpt>
      <trkpt lat="43.63569" lon="5.53588">
        <ele>290.45283657846</ele>
        <time>2020-11-26T08:15:18Z</time>
      </trkpt>
      <trkpt lat="43.63555" lon="5.53604">
        <ele>291.55810051146</ele>
        <time>2020-11-26T08:15:20Z</time>
      </trkpt>
      <trkpt lat="43.63555" lon="5.53604">
        <ele>292.39996225162</ele>
        <time>2020-11-26T08:15:22Z</time>
      </trkpt>
      <trkpt lat="43.63549" lon="5.53613">
        <ele>294.21045631169</ele>
        <time>2020-11-26T08:15:24Z</time>
      </trkpt>
      <trkpt lat="43.63535" lon="5.53625">
        <ele>294.70335113914</ele>
        <time>2020-11-26T08:15:27Z</time>
      </trkpt>
      <trkpt lat="43.63522" lon="5.53631">
        <ele>295.00785281767</ele>
        <time>2020-11-26T08:15:29Z</time>
      </trkpt>
      <trkpt lat="43.63497" lon="5.53675">
        <ele>294.95194288988</ele>
        <time>2020-11-26T08:15:31Z</time>
      </trkpt>
      <trkpt lat="43.6349" lon="5.5368">
        <ele>294.54900160409</ele>
        <time>2020-11-26T08:15:34Z</time>
      </trkpt>
      <trkpt lat="43.63484" lon="5.53681">
        <ele>293.94135469019</ele>
        <time>2020-11-26T08:15:36Z</time>
      </trkpt>
      <trkpt lat="43.63477" lon="5.53674">
        <ele>293.11863533329</ele>
        <time>2020-11-26T08:15:38Z</time>
      </trkpt>
      <trkpt lat="43.63453" lon="5.53621">
        <ele>291.77743443306</ele>
        <time>2020-11-26T08:15:41Z</time>
      </trkpt>
      <trkpt lat="43.63446" lon="5.53558">
        <ele>289.9878352817</ele>
        <time>2020-11-26T08:15:43Z</time>
      </trkpt>
      <trkpt lat="43.63436" lon="5.53531">
        <ele>288.24418726286</ele>
        <time>2020-11-26T08:15:45Z</time>
      </trkpt>
      <trkpt lat="43.63412" lon="5.53499">
        <ele>286.19020848001</ele>
        <time>2020-11-26T08:15:48Z</time>
      </trkpt>
      <trkpt lat="43.63406" lon="5.53481">
        <ele>284.24045590415</ele>
        <time>2020-11-26T08:15:50Z</time>
      </trkpt>
      <trkpt lat="43.63407" lon="5.53463">
        <ele>282.15475664671</ele>
        <time>2020-11-26T08:15:53Z</time>
      </trkpt>
      <trkpt lat="43.63408" lon="5.53454">
        <ele>280.01053531359</ele>
        <time>2020-11-26T08:15:55Z</time>
      </trkpt>
      <trkpt lat="43.63408" lon="5.53445">
        <ele>277.77304395682</ele>
        <time>2020-11-26T08:15:57Z</time>
      </trkpt>
      <trkpt lat="43.63402" lon="5.53426">
        <ele>275.31524653901</ele>
        <time>2020-11-26T08:16:00Z</time>
      </trkpt>
      <trkpt lat="43.63397" lon="5.53408">
        <ele>272.85626544648</ele>
        <time>2020-11-26T08:16:02Z</time>
      </trkpt>
      <trkpt lat="43.63395" lon="5.53399">
        <ele>270.52946089302</ele>
        <time>2020-11-26T08:16:04Z</time>
      </trkpt>
      <trkpt lat="43.63382" lon="5.53388">
        <ele>268.12259121235</ele>
        <time>2020-11-26T08:16:07Z</time>
      </trkpt>
      <trkpt lat="43.63369" lon="5.53383">
        <ele>265.84974277943</ele>
        <time>2020-11-26T08:16:09Z</time>
      </trkpt>
      <trkpt lat="43.63363" lon="5.53378">
        <ele>263.73472456067</ele>
        <time>2020-11-26T08:16:12Z</time>
      </trkpt>
      <trkpt lat="43.6336" lon="5.53369">
        <ele>261.74290283941</ele>
        <time>2020-11-26T08:16:14Z</time>
      </trkpt>
      <trkpt lat="43.6337" lon="5.53351">
        <ele>259.87486548976</ele>
        <time>2020-11-26T08:16:16Z</time>
      </trkpt>
      <trkpt lat="43.63377" lon="5.53346">
        <ele>258.19713164614</ele>
        <time>2020-11-26T08:16:19Z</time>
      </trkpt>
      <trkpt lat="43.63383" lon="5.53337">
        <ele>256.5677043624</ele>
        <time>2020-11-26T08:16:21Z</time>
      </trkpt>
      <trkpt lat="43.63389" lon="5.5332">
        <ele>255.11392113135</ele>
        <time>2020-11-26T08:16:24Z</time>
      </trkpt>
      <trkpt lat="43.63383" lon="5.53315">
        <ele>253.93068635304</ele>
        <time>2020-11-26T08:16:26Z</time>
      </trkpt>
      <trkpt lat="43.63376" lon="5.53315">
        <ele>252.93850498617</ele>
        <time>2020-11-26T08:16:28Z</time>
      </trkpt>
      <trkpt lat="43.6337" lon="5.53312">
        <ele>252.11068333482</ele>
        <time>2020-11-26T08:16:31Z</time>
      </trkpt>
      <trkpt lat="43.63366" lon="5.53304">
        <ele>251.45477601165</ele>
        <time>2020-11-26T08:16:33Z</time>
      </trkpt>
      <trkpt lat="43.63364" lon="5.53295">
        <ele>251.00763024001</ele>
        <time>2020-11-26T08:16:36Z</time>
      </trkpt>
      <trkpt lat="43.63352" lon="5.53288">
        <ele>250.79326186568</ele>
        <time>2020-11-26T08:16:38Z</time>
      </trkpt>
      <trkpt lat="43.6335" lon="5.53297">
        <ele>250.63103062913</ele>
        <time>2020-11-26T08:16:40Z</time>
      </trkpt>
      <trkpt lat="43.6335" lon="5.53306">
        <ele>250.63171731539</ele>
        <time>2020-11-26T08:16:43Z</time>
      </trkpt>
      <trkpt lat="43.63344" lon="5.53333">
        <ele>250.82987299798</ele>
        <time>2020-11-26T08:16:45Z</time>
      </trkpt>
      <trkpt lat="43.63328" lon="5.53358">
        <ele>251.23175396534</ele>
        <time>2020-11-26T08:16:48Z</time>
      </trkpt>
      <trkpt lat="43.63302" lon="5.53378">
        <ele>251.84889290013</ele>
        <time>2020-11-26T08:16:50Z</time>
      </trkpt>
      <trkpt lat="43.63271" lon="5.53433">
        <ele>252.59724680186</ele>
        <time>2020-11-26T08:16:52Z</time>
      </trkpt>
      <trkpt lat="43.63259" lon="5.53449">
        <ele>253.34700457604</ele>
        <time>2020-11-26T08:16:55Z</time>
      </trkpt>
      <trkpt lat="43.63232" lon="5.53465">
        <ele>254.35997409166</ele>
        <time>2020-11-26T08:16:57Z</time>
      </trkpt>
      <trkpt lat="43.63218" lon="5.53467">
        <ele>255.52479209813</ele>
        <time>2020-11-26T08:17:00Z</time>
      </trkpt>
      <trkpt lat="43.63205" lon="5.53463">
        <ele>256.93769163935</ele>
        <time>2020-11-26T08:17:02Z</time>
      </trkpt>
      <trkpt lat="43.63179" lon="5.53441">
        <ele>258.28548127449</ele>
        <time>2020-11-26T08:17:05Z</time>
      </trkpt>
      <trkpt lat="43.63166" lon="5.53426">
        <ele>259.6164713361</ele>
        <time>2020-11-26T08:17:07Z</time>
      </trkpt>
      <trkpt lat="43.63153" lon="5.53417">
        <ele>261.0092396881</ele>
        <time>2020-11-26T08:17:10Z</time>
      </trkpt>
      <trkpt lat="43.63139" lon="5.53415">
        <ele>262.55217585542</ele>
        <time>2020-11-26T08:17:12Z</time>
      </trkpt>
      <trkpt lat="43.63133" lon="5.53415">
        <ele>264.16590995853</ele>
        <time>2020-11-26T08:17:15Z</time>
      </trkpt>
      <trkpt lat="43.63128" lon="5.53424">
        <ele>265.83425929069</ele>
        <time>2020-11-26T08:17:17Z</time>
      </trkpt>
      <trkpt lat="43.63128" lon="5.53443">
        <ele>267.5414436452</ele>
        <time>2020-11-26T08:17:19Z</time>
      </trkpt>
      <trkpt lat="43.63132" lon="5.53452">
        <ele>269.34893405732</ele>
        <time>2020-11-26T08:17:22Z</time>
      </trkpt>
      <trkpt lat="43.63145" lon="5.53469">
        <ele>271.30418006118</ele>
        <time>2020-11-26T08:17:24Z</time>
      </trkpt>
      <trkpt lat="43.63144" lon="5.53486">
        <ele>273.30618538348</ele>
        <time>2020-11-26T08:17:27Z</time>
      </trkpt>
      <trkpt lat="43.63136" lon="5.53504">
        <ele>275.27770781878</ele>
        <time>2020-11-26T08:17:29Z</time>
      </trkpt>
      <trkpt lat="43.63129" lon="5.53511">
        <ele>277.19339737978</ele>
        <time>2020-11-26T08:17:32Z</time>
      </trkpt>
      <trkpt lat="43.6311" lon="5.53511">
        <ele>278.98772788009</ele>
        <time>2020-11-26T08:17:34Z</time>
      </trkpt>
      <trkpt lat="43.63071" lon="5.5349">
        <ele>281.16582720685</ele>
        <time>2020-11-26T08:17:37Z</time>
      </trkpt>
      <trkpt lat="43.63067" lon="5.53481">
        <ele>283.00636524581</ele>
        <time>2020-11-26T08:17:39Z</time>
      </trkpt>
      <trkpt lat="43.63056" lon="5.53479">
        <ele>285.02205527297</ele>
        <time>2020-11-26T08:17:42Z</time>
      </trkpt>
      <trkpt lat="43.6301" lon="5.53413">
        <ele>286.79786680697</ele>
        <time>2020-11-26T08:17:44Z</time>
      </trkpt>
      <trkpt lat="43.63004" lon="5.53408">
        <ele>288.50968063579</ele>
        <time>2020-11-26T08:17:47Z</time>
      </trkpt>
      <trkpt lat="43.62997" lon="5.53409">
        <ele>290.18543883717</ele>
        <time>2020-11-26T08:17:49Z</time>
      </trkpt>
      <trkpt lat="43.62978" lon="5.53429">
        <ele>291.99874347115</ele>
        <time>2020-11-26T08:17:52Z</time>
      </trkpt>
      <trkpt lat="43.62966" lon="5.53455">
        <ele>293.80287911397</ele>
        <time>2020-11-26T08:17:54Z</time>
      </trkpt>
      <trkpt lat="43.62963" lon="5.53464">
        <ele>295.24414108047</ele>
        <time>2020-11-26T08:17:57Z</time>
      </trkpt>
      <trkpt lat="43.62948" lon="5.53492">
        <ele>296.57828607924</ele>
        <time>2020-11-26T08:17:59Z</time>
      </trkpt>
      <trkpt lat="43.62928" lon="5.53514">
        <ele>297.8784767972</ele>
        <time>2020-11-26T08:18:02Z</time>
      </trkpt>
      <trkpt lat="43.62909" lon="5.5352">
        <ele>298.99746433255</ele>
        <time>2020-11-26T08:18:05Z</time>
      </trkpt>
      <trkpt lat="43.62902" lon="5.53526">
        <ele>299.94776197538</ele>
        <time>2020-11-26T08:18:07Z</time>
      </trkpt>
      <trkpt lat="43.62898" lon="5.53535">
        <ele>300.86182797935</ele>
        <time>2020-11-26T08:18:10Z</time>
      </trkpt>
      <trkpt lat="43.62892" lon="5.5354">
        <ele>301.6167511464</ele>
        <time>2020-11-26T08:18:12Z</time>
      </trkpt>
      <trkpt lat="43.62879" lon="5.53542">
        <ele>302.39937070098</ele>
        <time>2020-11-26T08:18:15Z</time>
      </trkpt>
      <trkpt lat="43.62866" lon="5.53533">
        <ele>303.12390699665</ele>
        <time>2020-11-26T08:18:17Z</time>
      </trkpt>
      <trkpt lat="43.62808" lon="5.53532">
        <ele>303.78260144635</ele>
        <time>2020-11-26T08:18:20Z</time>
      </trkpt>
      <trkpt lat="43.62801" lon="5.53534">
        <ele>304.30616916239</ele>
        <time>2020-11-26T08:18:22Z</time>
      </trkpt>
      <trkpt lat="43.62788" lon="5.53545">
        <ele>304.7366985553</ele>
        <time>2020-11-26T08:18:25Z</time>
      </trkpt>
      <trkpt lat="43.62756" lon="5.53553">
        <ele>305.07982063622</ele>
        <time>2020-11-26T08:18:28Z</time>
      </trkpt>
      <trkpt lat="43.62724" lon="5.53574">
        <ele>305.47142417982</ele>
        <time>2020-11-26T08:18:30Z</time>
      </trkpt>
      <trkpt lat="43.62714" lon="5.53601">
        <ele>305.96027106059</ele>
        <time>2020-11-26T08:18:33Z</time>
      </trkpt>
      <trkpt lat="43.62701" lon="5.53616">
        <ele>306.38630022276</ele>
        <time>2020-11-26T08:18:35Z</time>
      </trkpt>
      <trkpt lat="43.62679" lon="5.53621">
        <ele>306.8412855618</ele>
        <time>2020-11-26T08:18:38Z</time>
      </trkpt>
      <trkpt lat="43.62615" lon="5.53663">
        <ele>307.29884545964</ele>
        <time>2020-11-26T08:18:40Z</time>
      </trkpt>
      <trkpt lat="43.62611" lon="5.53672">
        <ele>307.76956107937</ele>
        <time>2020-11-26T08:18:43Z</time>
      </trkpt>
      <trkpt lat="43.62605" lon="5.53677">
        <ele>308.27821145039</ele>
        <time>2020-11-26T08:18:46Z</time>
      </trkpt>
      <trkpt lat="43.62593" lon="5.5373">
        <ele>308.97532763831</ele>
        <time>2020-11-26T08:18:48Z</time>
      </trkpt>
      <trkpt lat="43.62595" lon="5.53739">
        <ele>309.57911592351</ele>
        <time>2020-11-26T08:18:51Z</time>
      </trkpt>
      <trkpt lat="43.62594" lon="5.53748">
        <ele>310.19270377437</ele>
        <time>2020-11-26T08:18:54Z</time>
      </trkpt>
      <trkpt lat="43.62592" lon="5.53757">
        <ele>310.84976127978</ele>
        <time>2020-11-26T08:18:56Z</time>
      </trkpt>
      <trkpt lat="43.6258" lon="5.53774">
        <ele>311.54504567665</ele>
        <time>2020-11-26T08:18:59Z</time>
      </trkpt>
      <trkpt lat="43.62567" lon="5.53786">
        <ele>312.29827402635</ele>
        <time>2020-11-26T08:19:01Z</time>
      </trkpt>
      <trkpt lat="43.6254" lon="5.53818">
        <ele>313.15780739878</ele>
        <time>2020-11-26T08:19:04Z</time>
      </trkpt>
      <trkpt lat="43.62527" lon="5.5382">
        <ele>313.92883743109</ele>
        <time>2020-11-26T08:19:07Z</time>
      </trkpt>
      <trkpt lat="43.62501" lon="5.53815">
        <ele>314.76544657982</ele>
        <time>2020-11-26T08:19:09Z</time>
      </trkpt>
      <trkpt lat="43.62449" lon="5.53799">
        <ele>315.67241030422</ele>
        <time>2020-11-26T08:19:12Z</time>
      </trkpt>
      <trkpt lat="43.62442" lon="5.53798">
        <ele>316.55852223144</ele>
        <time>2020-11-26T08:19:15Z</time>
      </trkpt>
      <trkpt lat="43.6243" lon="5.53814">
        <ele>317.52932123359</ele>
        <time>2020-11-26T08:19:17Z</time>
      </trkpt>
      <trkpt lat="43.62427" lon="5.53822">
        <ele>318.53645981115</ele>
        <time>2020-11-26T08:19:20Z</time>
      </trkpt>
      <trkpt lat="43.62408" lon="5.53832">
        <ele>319.6595483717</ele>
        <time>2020-11-26T08:19:23Z</time>
      </trkpt>
      <trkpt lat="43.62398" lon="5.53839">
        <ele>320.80219245999</ele>
        <time>2020-11-26T08:19:25Z</time>
      </trkpt>
      <trkpt lat="43.62376" lon="5.53865">
        <ele>322.1455898184</ele>
        <time>2020-11-26T08:19:28Z</time>
      </trkpt>
      <trkpt lat="43.62371" lon="5.53873">
        <ele>323.3496870677</ele>
        <time>2020-11-26T08:19:31Z</time>
      </trkpt>
      <trkpt lat="43.62369" lon="5.53882">
        <ele>324.55729989422</ele>
        <time>2020-11-26T08:19:33Z</time>
      </trkpt>
      <trkpt lat="43.62367" lon="5.53908">
        <ele>325.84776517916</ele>
        <time>2020-11-26T08:19:36Z</time>
      </trkpt>
      <trkpt lat="43.62363" lon="5.53917">
        <ele>327.10524196717</ele>
        <time>2020-11-26T08:19:39Z</time>
      </trkpt>
      <trkpt lat="43.62363" lon="5.53926">
        <ele>328.37959831601</ele>
        <time>2020-11-26T08:19:41Z</time>
      </trkpt>
      <trkpt lat="43.6237" lon="5.53943">
        <ele>329.70533227272</ele>
        <time>2020-11-26T08:19:44Z</time>
      </trkpt>
      <trkpt lat="43.62373" lon="5.53952">
        <ele>331.08156231859</ele>
        <time>2020-11-26T08:19:47Z</time>
      </trkpt>
      <trkpt lat="43.62373" lon="5.53961">
        <ele>332.49818479724</ele>
        <time>2020-11-26T08:19:49Z</time>
      </trkpt>
      <trkpt lat="43.62368" lon="5.53969">
        <ele>333.94526860665</ele>
        <time>2020-11-26T08:19:52Z</time>
      </trkpt>
      <trkpt lat="43.62365" lon="5.53984">
        <ele>335.47885514601</ele>
        <time>2020-11-26T08:19:55Z</time>
      </trkpt>
      <trkpt lat="43.62365" lon="5.54005">
        <ele>337.13181728914</ele>
        <time>2020-11-26T08:19:57Z</time>
      </trkpt>
      <trkpt lat="43.62368" lon="5.54014">
        <ele>338.82453070403</ele>
        <time>2020-11-26T08:20:00Z</time>
      </trkpt>
      <trkpt lat="43.62368" lon="5.54033">
        <ele>340.62571060379</ele>
        <time>2020-11-26T08:20:03Z</time>
      </trkpt>
      <trkpt lat="43.62366" lon="5.54042">
        <ele>342.36191585752</ele>
        <time>2020-11-26T08:20:06Z</time>
      </trkpt>
      <trkpt lat="43.6235" lon="5.54086">
        <ele>344.36572527057</ele>
        <time>2020-11-26T08:20:08Z</time>
      </trkpt>
      <trkpt lat="43.62344" lon="5.54094">
        <ele>346.20984513912</ele>
        <time>2020-11-26T08:20:11Z</time>
      </trkpt>
      <trkpt lat="43.62336" lon="5.54112">
        <ele>348.10211197656</ele>
        <time>2020-11-26T08:20:14Z</time>
      </trkpt>
      <trkpt lat="43.62311" lon="5.54203">
        <ele>350.2387592724</ele>
        <time>2020-11-26T08:20:16Z</time>
      </trkpt>
      <trkpt lat="43.623" lon="5.5422">
        <ele>352.17784467221</ele>
        <time>2020-11-26T08:20:19Z</time>
      </trkpt>
      <trkpt lat="43.62293" lon="5.54238">
        <ele>354.24547210513</ele>
        <time>2020-11-26T08:20:22Z</time>
      </trkpt>
      <trkpt lat="43.62287" lon="5.54243">
        <ele>356.19627521606</ele>
        <time>2020-11-26T08:20:25Z</time>
      </trkpt>
      <trkpt lat="43.62282" lon="5.54251">
        <ele>358.18556084962</ele>
        <time>2020-11-26T08:20:27Z</time>
      </trkpt>
      <trkpt lat="43.62275" lon="5.54253">
        <ele>360.16960546347</ele>
        <time>2020-11-26T08:20:30Z</time>
      </trkpt>
      <trkpt lat="43.62269" lon="5.54252">
        <ele>362.1399392333</ele>
        <time>2020-11-26T08:20:33Z</time>
      </trkpt>
      <trkpt lat="43.62255" lon="5.54237">
        <ele>364.1368211236</ele>
        <time>2020-11-26T08:20:35Z</time>
      </trkpt>
      <trkpt lat="43.62248" lon="5.54235">
        <ele>366.18757634212</ele>
        <time>2020-11-26T08:20:38Z</time>
      </trkpt>
      <trkpt lat="43.62235" lon="5.54235">
        <ele>368.32493070375</ele>
        <time>2020-11-26T08:20:41Z</time>
      </trkpt>
      <trkpt lat="43.62228" lon="5.54241">
        <ele>370.34808660438</ele>
        <time>2020-11-26T08:20:44Z</time>
      </trkpt>
      <trkpt lat="43.6222" lon="5.54258">
        <ele>372.42137594149</ele>
        <time>2020-11-26T08:20:46Z</time>
      </trkpt>
      <trkpt lat="43.62206" lon="5.54293">
        <ele>374.6847980543</ele>
        <time>2020-11-26T08:20:49Z</time>
      </trkpt>
      <trkpt lat="43.622" lon="5.54297">
        <ele>376.79205000328</ele>
        <time>2020-11-26T08:20:52Z</time>
      </trkpt>
      <trkpt lat="43.62175" lon="5.54278">
        <ele>379.01676319926</ele>
        <time>2020-11-26T08:20:55Z</time>
      </trkpt>
      <trkpt lat="43.62161" lon="5.54275">
        <ele>381.08675352269</ele>
        <time>2020-11-26T08:20:57Z</time>
      </trkpt>
      <trkpt lat="43.62148" lon="5.54275">
        <ele>383.13986285781</ele>
        <time>2020-11-26T08:21:00Z</time>
      </trkpt>
      <trkpt lat="43.62141" lon="5.54279">
        <ele>385.14802762314</ele>
        <time>2020-11-26T08:21:03Z</time>
      </trkpt>
      <trkpt lat="43.62134" lon="5.54296">
        <ele>387.29319353749</ele>
        <time>2020-11-26T08:21:06Z</time>
      </trkpt>
      <trkpt lat="43.62128" lon="5.54305">
        <ele>389.28875089913</ele>
        <time>2020-11-26T08:21:09Z</time>
      </trkpt>
      <trkpt lat="43.62121" lon="5.54307">
        <ele>391.1689007476</ele>
        <time>2020-11-26T08:21:11Z</time>
      </trkpt>
      <trkpt lat="43.62115" lon="5.54313">
        <ele>393.04113721064</ele>
        <time>2020-11-26T08:21:14Z</time>
      </trkpt>
      <trkpt lat="43.62106" lon="5.54331">
        <ele>394.96951240039</ele>
        <time>2020-11-26T08:21:17Z</time>
      </trkpt>
      <trkpt lat="43.62104" lon="5.54339">
        <ele>396.7147068936</ele>
        <time>2020-11-26T08:21:20Z</time>
      </trkpt>
      <trkpt lat="43.62101" lon="5.54348">
        <ele>398.37858162231</ele>
        <time>2020-11-26T08:21:22Z</time>
      </trkpt>
      <trkpt lat="43.62099" lon="5.54366">
        <ele>400.11426092783</ele>
        <time>2020-11-26T08:21:25Z</time>
      </trkpt>
      <trkpt lat="43.62094" lon="5.54375">
        <ele>401.70757402569</ele>
        <time>2020-11-26T08:21:28Z</time>
      </trkpt>
      <trkpt lat="43.62087" lon="5.54377">
        <ele>403.15193568878</ele>
        <time>2020-11-26T08:21:31Z</time>
      </trkpt>
      <trkpt lat="43.62081" lon="5.54377">
        <ele>404.48473357913</ele>
        <time>2020-11-26T08:21:34Z</time>
      </trkpt>
      <trkpt lat="43.62074" lon="5.54371">
        <ele>405.66487578928</ele>
        <time>2020-11-26T08:21:36Z</time>
      </trkpt>
      <trkpt lat="43.62058" lon="5.54356">
        <ele>406.70304247425</ele>
        <time>2020-11-26T08:21:39Z</time>
      </trkpt>
      <trkpt lat="43.62048" lon="5.54371">
        <ele>407.93117456491</ele>
        <time>2020-11-26T08:21:42Z</time>
      </trkpt>
      <trkpt lat="43.62047" lon="5.54397">
        <ele>409.24266703049</ele>
        <time>2020-11-26T08:21:45Z</time>
      </trkpt>
      <trkpt lat="43.62043" lon="5.54406">
        <ele>410.30686579942</ele>
        <time>2020-11-26T08:21:48Z</time>
      </trkpt>
      <trkpt lat="43.6203" lon="5.54414">
        <ele>411.25996758507</ele>
        <time>2020-11-26T08:21:50Z</time>
      </trkpt>
      <trkpt lat="43.62003" lon="5.54414">
        <ele>411.99526793232</ele>
        <time>2020-11-26T08:21:53Z</time>
      </trkpt>
      <trkpt lat="43.61992" lon="5.5443">
        <ele>412.84064658418</ele>
        <time>2020-11-26T08:21:56Z</time>
      </trkpt>
      <trkpt lat="43.61989" lon="5.54439">
        <ele>413.62073694332</ele>
        <time>2020-11-26T08:21:59Z</time>
      </trkpt>
      <trkpt lat="43.61988" lon="5.54457">
        <ele>414.44420850339</ele>
        <time>2020-11-26T08:22:02Z</time>
      </trkpt>
      <trkpt lat="43.61987" lon="5.54466">
        <ele>415.19766514399</ele>
        <time>2020-11-26T08:22:04Z</time>
      </trkpt>
      <trkpt lat="43.61987" lon="5.54484">
        <ele>416.00470473874</ele>
        <time>2020-11-26T08:22:07Z</time>
      </trkpt>
      <trkpt lat="43.61989" lon="5.54501">
        <ele>416.811692634</ele>
        <time>2020-11-26T08:22:10Z</time>
      </trkpt>
      <trkpt lat="43.61994" lon="5.54519">
        <ele>417.65061340263</ele>
        <time>2020-11-26T08:22:13Z</time>
      </trkpt>
      <trkpt lat="43.61994" lon="5.54528">
        <ele>418.38694696143</ele>
        <time>2020-11-26T08:22:16Z</time>
      </trkpt>
      <trkpt lat="43.61999" lon="5.54546">
        <ele>419.19910361949</ele>
        <time>2020-11-26T08:22:19Z</time>
      </trkpt>
      <trkpt lat="43.61998" lon="5.54555">
        <ele>419.91353912265</ele>
        <time>2020-11-26T08:22:21Z</time>
      </trkpt>
      <trkpt lat="43.61991" lon="5.54562">
        <ele>420.56704341494</ele>
        <time>2020-11-26T08:22:24Z</time>
      </trkpt>
      <trkpt lat="43.61965" lon="5.54572">
        <ele>421.11129101563</ele>
        <time>2020-11-26T08:22:27Z</time>
      </trkpt>
      <trkpt lat="43.6196" lon="5.5458">
        <ele>421.85808675474</ele>
        <time>2020-11-26T08:22:30Z</time>
      </trkpt>
      <trkpt lat="43.61957" lon="5.54589">
        <ele>422.63332586713</ele>
        <time>2020-11-26T08:22:33Z</time>
      </trkpt>
      <trkpt lat="43.61956" lon="5.54607">
        <ele>423.53931379862</ele>
        <time>2020-11-26T08:22:36Z</time>
      </trkpt>
      <trkpt lat="43.61959" lon="5.54634">
        <ele>424.52755510744</ele>
        <time>2020-11-26T08:22:38Z</time>
      </trkpt>
      <trkpt lat="43.61957" lon="5.54642">
        <ele>425.38951104158</ele>
        <time>2020-11-26T08:22:41Z</time>
      </trkpt>
      <trkpt lat="43.61954" lon="5.54651">
        <ele>426.24713996987</ele>
        <time>2020-11-26T08:22:44Z</time>
      </trkpt>
      <trkpt lat="43.61947" lon="5.54658">
        <ele>427.14225052167</ele>
        <time>2020-11-26T08:22:47Z</time>
      </trkpt>
      <trkpt lat="43.61935" lon="5.54661">
        <ele>428.07174993545</ele>
        <time>2020-11-26T08:22:50Z</time>
      </trkpt>
      <trkpt lat="43.61903" lon="5.54681">
        <ele>429.10814759271</ele>
        <time>2020-11-26T08:22:53Z</time>
      </trkpt>
      <trkpt lat="43.6189" lon="5.54682">
        <ele>430.12341596371</ele>
        <time>2020-11-26T08:22:56Z</time>
      </trkpt>
      <trkpt lat="43.61839" lon="5.54657">
        <ele>431.36079670628</ele>
        <time>2020-11-26T08:22:58Z</time>
      </trkpt>
      <trkpt lat="43.61748" lon="5.54634">
        <ele>432.64385811635</ele>
        <time>2020-11-26T08:23:01Z</time>
      </trkpt>
      <trkpt lat="43.61719" lon="5.54639">
        <ele>433.78432481516</ele>
        <time>2020-11-26T08:23:04Z</time>
      </trkpt>
      <trkpt lat="43.61697" lon="5.54639">
        <ele>434.87906355405</ele>
        <time>2020-11-26T08:23:07Z</time>
      </trkpt>
      <trkpt lat="43.61684" lon="5.5465">
        <ele>436.10256266429</ele>
        <time>2020-11-26T08:23:10Z</time>
      </trkpt>
      <trkpt lat="43.61665" lon="5.5465">
        <ele>437.33520128865</ele>
        <time>2020-11-26T08:23:13Z</time>
      </trkpt>
      <trkpt lat="43.61645" lon="5.54659">
        <ele>438.67145989105</ele>
        <time>2020-11-26T08:23:16Z</time>
      </trkpt>
      <trkpt lat="43.61626" lon="5.54676">
        <ele>440.03629565905</ele>
        <time>2020-11-26T08:23:19Z</time>
      </trkpt>
      <trkpt lat="43.61619" lon="5.54685">
        <ele>441.46068157407</ele>
        <time>2020-11-26T08:23:22Z</time>
      </trkpt>
      <trkpt lat="43.61599" lon="5.54702">
        <ele>442.93440007186</ele>
        <time>2020-11-26T08:23:25Z</time>
      </trkpt>
      <trkpt lat="43.61592" lon="5.54704">
        <ele>444.46097262756</ele>
        <time>2020-11-26T08:23:28Z</time>
      </trkpt>
      <trkpt lat="43.61586" lon="5.54709">
        <ele>446.06415736023</ele>
        <time>2020-11-26T08:23:31Z</time>
      </trkpt>
      <trkpt lat="43.61527" lon="5.54723">
        <ele>447.87424332702</ele>
        <time>2020-11-26T08:23:33Z</time>
      </trkpt>
      <trkpt lat="43.61501" lon="5.54735">
        <ele>449.69551506742</ele>
        <time>2020-11-26T08:23:36Z</time>
      </trkpt>
      <trkpt lat="43.61403" lon="5.54762">
        <ele>451.68939931724</ele>
        <time>2020-11-26T08:23:39Z</time>
      </trkpt>
      <trkpt lat="43.61376" lon="5.54762">
        <ele>453.57122143752</ele>
        <time>2020-11-26T08:23:42Z</time>
      </trkpt>
      <trkpt lat="43.61323" lon="5.54752">
        <ele>455.67208617904</ele>
        <time>2020-11-26T08:23:45Z</time>
      </trkpt>
      <trkpt lat="43.6131" lon="5.54752">
        <ele>457.74394585449</ele>
        <time>2020-11-26T08:23:48Z</time>
      </trkpt>
      <trkpt lat="43.61272" lon="5.54763">
        <ele>459.96128631001</ele>
        <time>2020-11-26T08:23:51Z</time>
      </trkpt>
      <trkpt lat="43.61265" lon="5.54768">
        <ele>462.15573830825</ele>
        <time>2020-11-26T08:23:54Z</time>
      </trkpt>
      <trkpt lat="43.61246" lon="5.54777">
        <ele>464.54543519759</ele>
        <time>2020-11-26T08:23:57Z</time>
      </trkpt>
      <trkpt lat="43.61241" lon="5.54786">
        <ele>466.82229897737</ele>
        <time>2020-11-26T08:24:00Z</time>
      </trkpt>
      <trkpt lat="43.61233" lon="5.54807">
        <ele>469.14652515673</ele>
        <time>2020-11-26T08:24:03Z</time>
      </trkpt>
      <trkpt lat="43.61218" lon="5.54822">
        <ele>471.49531506525</ele>
        <time>2020-11-26T08:24:06Z</time>
      </trkpt>
      <trkpt lat="43.61172" lon="5.54833">
        <ele>474.04160195318</ele>
        <time>2020-11-26T08:24:09Z</time>
      </trkpt>
      <trkpt lat="43.61138" lon="5.54825">
        <ele>476.51979390874</ele>
        <time>2020-11-26T08:24:12Z</time>
      </trkpt>
      <trkpt lat="43.61132" lon="5.54825">
        <ele>478.71351712564</ele>
        <time>2020-11-26T08:24:15Z</time>
      </trkpt>
      <trkpt lat="43.61067" lon="5.54853">
        <ele>481.15169666473</ele>
        <time>2020-11-26T08:24:18Z</time>
      </trkpt>
      <trkpt lat="43.61054" lon="5.54857">
        <ele>483.2927685871</ele>
        <time>2020-11-26T08:24:21Z</time>
      </trkpt>
      <trkpt lat="43.61034" lon="5.54866">
        <ele>485.34075208953</ele>
        <time>2020-11-26T08:24:25Z</time>
      </trkpt>
      <trkpt lat="43.61022" lon="5.5487">
        <ele>487.23514859101</ele>
        <time>2020-11-26T08:24:28Z</time>
      </trkpt>
      <trkpt lat="43.61015" lon="5.54873">
        <ele>489.04834282985</ele>
        <time>2020-11-26T08:24:31Z</time>
      </trkpt>
      <trkpt lat="43.6099" lon="5.54905">
        <ele>490.86212276115</ele>
        <time>2020-11-26T08:24:34Z</time>
      </trkpt>
      <trkpt lat="43.60986" lon="5.54915">
        <ele>492.57010705532</ele>
        <time>2020-11-26T08:24:37Z</time>
      </trkpt>
      <trkpt lat="43.60985" lon="5.54942">
        <ele>494.23244631047</ele>
        <time>2020-11-26T08:24:40Z</time>
      </trkpt>
      <trkpt lat="43.60983" lon="5.54951">
        <ele>495.71223987636</ele>
        <time>2020-11-26T08:24:43Z</time>
      </trkpt>
      <trkpt lat="43.60968" lon="5.54978">
        <ele>497.14279804345</ele>
        <time>2020-11-26T08:24:46Z</time>
      </trkpt>
      <trkpt lat="43.60966" lon="5.54997">
        <ele>498.38224888633</ele>
        <time>2020-11-26T08:24:49Z</time>
      </trkpt>
      <trkpt lat="43.60958" lon="5.55014">
        <ele>499.43318679921</ele>
        <time>2020-11-26T08:24:52Z</time>
      </trkpt>
      <trkpt lat="43.60957" lon="5.55023">
        <ele>500.37003047407</ele>
        <time>2020-11-26T08:24:55Z</time>
      </trkpt>
      <trkpt lat="43.60951" lon="5.55032">
        <ele>501.12441286105</ele>
        <time>2020-11-26T08:24:58Z</time>
      </trkpt>
      <trkpt lat="43.60944" lon="5.55036">
        <ele>501.73145763742</ele>
        <time>2020-11-26T08:25:01Z</time>
      </trkpt>
      <trkpt lat="43.60937" lon="5.55043">
        <ele>502.16465688471</ele>
        <time>2020-11-26T08:25:04Z</time>
      </trkpt>
      <trkpt lat="43.60911" lon="5.55051">
        <ele>502.41694747419</ele>
        <time>2020-11-26T08:25:07Z</time>
      </trkpt>
      <trkpt lat="43.60911" lon="5.55051">
        <ele>502.56283417608</ele>
        <time>2020-11-26T08:25:11Z</time>
      </trkpt>
      <trkpt lat="43.60911" lon="5.55051">
        <ele>502.36838959773</ele>
        <time>2020-11-26T08:25:14Z</time>
      </trkpt>
      <trkpt lat="43.60898" lon="5.55052">
        <ele>501.99946059454</ele>
        <time>2020-11-26T08:25:17Z</time>
      </trkpt>
      <trkpt lat="43.60835" lon="5.5509">
        <ele>501.42280930215</ele>
        <time>2020-11-26T08:25:20Z</time>
      </trkpt>
      <trkpt lat="43.60809" lon="5.55104">
        <ele>500.86471596969</ele>
        <time>2020-11-26T08:25:23Z</time>
      </trkpt>
      <trkpt lat="43.60803" lon="5.55112">
        <ele>500.01809599226</ele>
        <time>2020-11-26T08:25:26Z</time>
      </trkpt>
      <trkpt lat="43.60796" lon="5.55113">
        <ele>499.00779925639</ele>
        <time>2020-11-26T08:25:29Z</time>
      </trkpt>
      <trkpt lat="43.60789" lon="5.55108">
        <ele>497.8237339117</ele>
        <time>2020-11-26T08:25:32Z</time>
      </trkpt>
      <trkpt lat="43.6078" lon="5.5509">
        <ele>496.5003357732</ele>
        <time>2020-11-26T08:25:35Z</time>
      </trkpt>
      <trkpt lat="43.6078" lon="5.5508">
        <ele>494.91071586696</ele>
        <time>2020-11-26T08:25:38Z</time>
      </trkpt>
      <trkpt lat="43.60783" lon="5.55071">
        <ele>493.1121031079</ele>
        <time>2020-11-26T08:25:42Z</time>
      </trkpt>
      <trkpt lat="43.60802" lon="5.55047">
        <ele>490.99482563973</ele>
        <time>2020-11-26T08:25:45Z</time>
      </trkpt>
      <trkpt lat="43.60808" lon="5.55028">
        <ele>488.78421750794</ele>
        <time>2020-11-26T08:25:48Z</time>
      </trkpt>
      <trkpt lat="43.6081" lon="5.5502">
        <ele>486.48765655574</ele>
        <time>2020-11-26T08:25:51Z</time>
      </trkpt>
      <trkpt lat="43.60818" lon="5.55001">
        <ele>483.97072565414</ele>
        <time>2020-11-26T08:25:54Z</time>
      </trkpt>
      <trkpt lat="43.60837" lon="5.54978">
        <ele>481.06759415808</ele>
        <time>2020-11-26T08:25:57Z</time>
      </trkpt>
      <trkpt lat="43.60849" lon="5.54932">
        <ele>477.89397171425</ele>
        <time>2020-11-26T08:26:00Z</time>
      </trkpt>
      <trkpt lat="43.60857" lon="5.54914">
        <ele>474.95032505431</ele>
        <time>2020-11-26T08:26:04Z</time>
      </trkpt>
      <trkpt lat="43.6086" lon="5.54878">
        <ele>472.06331809731</ele>
        <time>2020-11-26T08:26:07Z</time>
      </trkpt>
      <trkpt lat="43.60864" lon="5.54869">
        <ele>469.2006846437</ele>
        <time>2020-11-26T08:26:10Z</time>
      </trkpt>
      <trkpt lat="43.60876" lon="5.54833">
        <ele>466.20488956868</ele>
        <time>2020-11-26T08:26:13Z</time>
      </trkpt>
      <trkpt lat="43.609" lon="5.54788">
        <ele>463.13526752009</ele>
        <time>2020-11-26T08:26:16Z</time>
      </trkpt>
      <trkpt lat="43.60903" lon="5.54779">
        <ele>460.31566063364</ele>
        <time>2020-11-26T08:26:19Z</time>
      </trkpt>
      <trkpt lat="43.60905" lon="5.5474">
        <ele>457.49095466853</ele>
        <time>2020-11-26T08:26:23Z</time>
      </trkpt>
      <trkpt lat="43.60908" lon="5.54731">
        <ele>454.73163298028</ele>
        <time>2020-11-26T08:26:26Z</time>
      </trkpt>
      <trkpt lat="43.60909" lon="5.54712">
        <ele>452.01395537082</ele>
        <time>2020-11-26T08:26:29Z</time>
      </trkpt>
      <trkpt lat="43.60919" lon="5.54684">
        <ele>449.20660638463</ele>
        <time>2020-11-26T08:26:32Z</time>
      </trkpt>
      <trkpt lat="43.60937" lon="5.54662">
        <ele>446.61240222461</ele>
        <time>2020-11-26T08:26:35Z</time>
      </trkpt>
      <trkpt lat="43.6094" lon="5.54652">
        <ele>444.18524430149</ele>
        <time>2020-11-26T08:26:38Z</time>
      </trkpt>
      <trkpt lat="43.60943" lon="5.54624">
        <ele>441.76367879217</ele>
        <time>2020-11-26T08:26:42Z</time>
      </trkpt>
      <trkpt lat="43.60943" lon="5.54615">
        <ele>439.58722522046</ele>
        <time>2020-11-26T08:26:45Z</time>
      </trkpt>
      <trkpt lat="43.6094" lon="5.54587">
        <ele>437.45487049546</ele>
        <time>2020-11-26T08:26:48Z</time>
      </trkpt>
      <trkpt lat="43.60951" lon="5.54542">
        <ele>435.33169194828</ele>
        <time>2020-11-26T08:26:51Z</time>
      </trkpt>
      <trkpt lat="43.6095" lon="5.54507">
        <ele>433.35731443181</ele>
        <time>2020-11-26T08:26:54Z</time>
      </trkpt>
      <trkpt lat="43.60949" lon="5.54498">
        <ele>431.71363020781</ele>
        <time>2020-11-26T08:26:58Z</time>
      </trkpt>
      <trkpt lat="43.60942" lon="5.54479">
        <ele>430.17335726589</ele>
        <time>2020-11-26T08:27:01Z</time>
      </trkpt>
      <trkpt lat="43.60936" lon="5.54464">
        <ele>428.83716669712</ele>
        <time>2020-11-26T08:27:04Z</time>
      </trkpt>
      <trkpt lat="43.60905" lon="5.54466">
        <ele>427.80399092231</ele>
        <time>2020-11-26T08:27:07Z</time>
      </trkpt>
      <trkpt lat="43.6088" lon="5.54431">
        <ele>427.02362493039</ele>
        <time>2020-11-26T08:27:11Z</time>
      </trkpt>
      <trkpt lat="43.60878" lon="5.54421">
        <ele>426.14349447271</ele>
        <time>2020-11-26T08:27:14Z</time>
      </trkpt>
      <trkpt lat="43.60892" lon="5.54374">
        <ele>425.39023359717</ele>
        <time>2020-11-26T08:27:17Z</time>
      </trkpt>
      <trkpt lat="43.60894" lon="5.54347">
        <ele>424.72071116956</ele>
        <time>2020-11-26T08:27:20Z</time>
      </trkpt>
      <trkpt lat="43.60897" lon="5.54338">
        <ele>424.02610667812</ele>
        <time>2020-11-26T08:27:23Z</time>
      </trkpt>
      <trkpt lat="43.60899" lon="5.54302">
        <ele>423.39082851532</ele>
        <time>2020-11-26T08:27:27Z</time>
      </trkpt>
      <trkpt lat="43.60895" lon="5.54293">
        <ele>422.7993673992</ele>
        <time>2020-11-26T08:27:30Z</time>
      </trkpt>
      <trkpt lat="43.60892" lon="5.54274">
        <ele>422.20065532469</ele>
        <time>2020-11-26T08:27:33Z</time>
      </trkpt>
      <trkpt lat="43.60891" lon="5.54236">
        <ele>421.47908873494</ele>
        <time>2020-11-26T08:27:37Z</time>
      </trkpt>
      <trkpt lat="43.60879" lon="5.54206">
        <ele>420.7979330353</ele>
        <time>2020-11-26T08:27:40Z</time>
      </trkpt>
      <trkpt lat="43.60877" lon="5.54196">
        <ele>420.26089623342</ele>
        <time>2020-11-26T08:27:43Z</time>
      </trkpt>
      <trkpt lat="43.60874" lon="5.54187">
        <ele>419.72494187938</ele>
        <time>2020-11-26T08:27:46Z</time>
      </trkpt>
      <trkpt lat="43.60867" lon="5.54179">
        <ele>419.21126267376</ele>
        <time>2020-11-26T08:27:50Z</time>
      </trkpt>
      <trkpt lat="43.60837" lon="5.54164">
        <ele>418.84606137136</ele>
        <time>2020-11-26T08:27:53Z</time>
      </trkpt>
      <trkpt lat="43.60824" lon="5.54162">
        <ele>418.47913912314</ele>
        <time>2020-11-26T08:27:56Z</time>
      </trkpt>
      <trkpt lat="43.60797" lon="5.54145">
        <ele>418.16785632155</ele>
        <time>2020-11-26T08:27:59Z</time>
      </trkpt>
      <trkpt lat="43.60794" lon="5.54136">
        <ele>417.69151333467</ele>
        <time>2020-11-26T08:28:03Z</time>
      </trkpt>
      <trkpt lat="43.60793" lon="5.54109">
        <ele>417.20250764849</ele>
        <time>2020-11-26T08:28:06Z</time>
      </trkpt>
      <trkpt lat="43.60806" lon="5.54082">
        <ele>416.44628395622</ele>
        <time>2020-11-26T08:28:09Z</time>
      </trkpt>
      <trkpt lat="43.60813" lon="5.54043">
        <ele>415.71489217584</ele>
        <time>2020-11-26T08:28:13Z</time>
      </trkpt>
      <trkpt lat="43.60813" lon="5.54035">
        <ele>415.15786133429</ele>
        <time>2020-11-26T08:28:16Z</time>
      </trkpt>
      <trkpt lat="43.60812" lon="5.54026">
        <ele>414.62471802685</ele>
        <time>2020-11-26T08:28:19Z</time>
      </trkpt>
      <trkpt lat="43.608" lon="5.53999">
        <ele>414.04891072516</ele>
        <time>2020-11-26T08:28:23Z</time>
      </trkpt>
      <trkpt lat="43.60789" lon="5.53981">
        <ele>413.48184525654</ele>
        <time>2020-11-26T08:28:26Z</time>
      </trkpt>
      <trkpt lat="43.60772" lon="5.53944">
        <ele>412.82135007072</ele>
        <time>2020-11-26T08:28:29Z</time>
      </trkpt>
      <trkpt lat="43.60759" lon="5.53928">
        <ele>412.41431173489</ele>
        <time>2020-11-26T08:28:32Z</time>
      </trkpt>
      <trkpt lat="43.60753" lon="5.53924">
        <ele>412.08978038284</ele>
        <time>2020-11-26T08:28:36Z</time>
      </trkpt>
      <trkpt lat="43.60727" lon="5.53924">
        <ele>412.0104973049</ele>
        <time>2020-11-26T08:28:39Z</time>
      </trkpt>
      <trkpt lat="43.60724" lon="5.53915">
        <ele>411.72233493876</ele>
        <time>2020-11-26T08:28:42Z</time>
      </trkpt>
      <trkpt lat="43.60724" lon="5.53896">
        <ele>411.45925442391</ele>
        <time>2020-11-26T08:28:46Z</time>
      </trkpt>
      <trkpt lat="43.60726" lon="5.53851">
        <ele>411.18021251076</ele>
        <time>2020-11-26T08:28:49Z</time>
      </trkpt>
      <trkpt lat="43.60729" lon="5.53842">
        <ele>411.04782028051</ele>
        <time>2020-11-26T08:28:52Z</time>
      </trkpt>
      <trkpt lat="43.60728" lon="5.53834">
        <ele>411.01150861366</ele>
        <time>2020-11-26T08:28:56Z</time>
      </trkpt>
      <trkpt lat="43.60715" lon="5.53829">
        <ele>411.04924268902</ele>
        <time>2020-11-26T08:28:59Z</time>
      </trkpt>
      <trkpt lat="43.60709" lon="5.53829">
        <ele>411.18105891861</ele>
        <time>2020-11-26T08:29:02Z</time>
      </trkpt>
      <trkpt lat="43.60674" lon="5.53842">
        <ele>411.42428409414</ele>
        <time>2020-11-26T08:29:06Z</time>
      </trkpt>
      <trkpt lat="43.60635" lon="5.53843">
        <ele>411.74100959309</ele>
        <time>2020-11-26T08:29:09Z</time>
      </trkpt>
      <trkpt lat="43.60622" lon="5.53839">
        <ele>412.07075881114</ele>
        <time>2020-11-26T08:29:13Z</time>
      </trkpt>
      <trkpt lat="43.6059" lon="5.53803">
        <ele>412.38030653181</ele>
        <time>2020-11-26T08:29:16Z</time>
      </trkpt>
      <trkpt lat="43.60584" lon="5.53799">
        <ele>412.73774776775</ele>
        <time>2020-11-26T08:29:19Z</time>
      </trkpt>
      <trkpt lat="43.60565" lon="5.53779">
        <ele>413.02400691254</ele>
        <time>2020-11-26T08:29:23Z</time>
      </trkpt>
      <trkpt lat="43.60552" lon="5.53775">
        <ele>413.40451353189</ele>
        <time>2020-11-26T08:29:26Z</time>
      </trkpt>
      <trkpt lat="43.60506" lon="5.53772">
        <ele>413.75157131557</ele>
        <time>2020-11-26T08:29:29Z</time>
      </trkpt>
      <trkpt lat="43.60433" lon="5.53771">
        <ele>414.27815278833</ele>
        <time>2020-11-26T08:29:33Z</time>
      </trkpt>
      <trkpt lat="43.60408" lon="5.53767">
        <ele>414.65469939025</ele>
        <time>2020-11-26T08:29:36Z</time>
      </trkpt>
      <trkpt lat="43.60395" lon="5.53767">
        <ele>415.01797381676</ele>
        <time>2020-11-26T08:29:40Z</time>
      </trkpt>
      <trkpt lat="43.60376" lon="5.53773">
        <ele>415.50551280932</ele>
        <time>2020-11-26T08:29:43Z</time>
      </trkpt>
      <trkpt lat="43.60357" lon="5.53756">
        <ele>415.79189252633</ele>
        <time>2020-11-26T08:29:46Z</time>
      </trkpt>
      <trkpt lat="43.60352" lon="5.53748">
        <ele>415.98749176594</ele>
        <time>2020-11-26T08:29:50Z</time>
      </trkpt>
      <trkpt lat="43.60339" lon="5.53712">
        <ele>416.36475887315</ele>
        <time>2020-11-26T08:29:53Z</time>
      </trkpt>
      <trkpt lat="43.60337" lon="5.53694">
        <ele>416.49527797153</ele>
        <time>2020-11-26T08:29:57Z</time>
      </trkpt>
      <trkpt lat="43.60337" lon="5.53667">
        <ele>416.48233396215</ele>
        <time>2020-11-26T08:30:00Z</time>
      </trkpt>
      <trkpt lat="43.60362" lon="5.53623">
        <ele>415.94239581853</ele>
        <time>2020-11-26T08:30:04Z</time>
      </trkpt>
      <trkpt lat="43.60368" lon="5.53618">
        <ele>415.55718367336</ele>
        <time>2020-11-26T08:30:07Z</time>
      </trkpt>
      <trkpt lat="43.60293" lon="5.53606">
        <ele>415.15154055806</ele>
        <time>2020-11-26T08:30:11Z</time>
      </trkpt>
      <trkpt lat="43.60276" lon="5.53593">
        <ele>414.48566257308</ele>
        <time>2020-11-26T08:30:14Z</time>
      </trkpt>
      <trkpt lat="43.6027" lon="5.53585">
        <ele>413.77502344813</ele>
        <time>2020-11-26T08:30:17Z</time>
      </trkpt>
      <trkpt lat="43.60262" lon="5.53557">
        <ele>412.94158350949</ele>
        <time>2020-11-26T08:30:21Z</time>
      </trkpt>
      <trkpt lat="43.60247" lon="5.53543">
        <ele>412.07117538652</ele>
        <time>2020-11-26T08:30:24Z</time>
      </trkpt>
      <trkpt lat="43.60232" lon="5.53507">
        <ele>411.04623857577</ele>
        <time>2020-11-26T08:30:28Z</time>
      </trkpt>
      <trkpt lat="43.60204" lon="5.53467">
        <ele>409.87568221666</ele>
        <time>2020-11-26T08:30:31Z</time>
      </trkpt>
      <trkpt lat="43.602" lon="5.53458">
        <ele>408.85949058642</ele>
        <time>2020-11-26T08:30:35Z</time>
      </trkpt>
      <trkpt lat="43.60189" lon="5.53446">
        <ele>407.7524742175</ele>
        <time>2020-11-26T08:30:38Z</time>
      </trkpt>
      <trkpt lat="43.60183" lon="5.53435">
        <ele>406.6559408365</ele>
        <time>2020-11-26T08:30:42Z</time>
      </trkpt>
      <trkpt lat="43.60177" lon="5.53426">
        <ele>405.53318784499</ele>
        <time>2020-11-26T08:30:45Z</time>
      </trkpt>
      <trkpt lat="43.60157" lon="5.53404">
        <ele>404.35470275911</ele>
        <time>2020-11-26T08:30:49Z</time>
      </trkpt>
      <trkpt lat="43.60146" lon="5.53387">
        <ele>403.21040233806</ele>
        <time>2020-11-26T08:30:52Z</time>
      </trkpt>
      <trkpt lat="43.60137" lon="5.5336">
        <ele>402.03814250702</ele>
        <time>2020-11-26T08:30:56Z</time>
      </trkpt>
      <trkpt lat="43.60135" lon="5.53351">
        <ele>400.86936074783</ele>
        <time>2020-11-26T08:30:59Z</time>
      </trkpt>
      <trkpt lat="43.60116" lon="5.53298">
        <ele>399.59367672707</ele>
        <time>2020-11-26T08:31:03Z</time>
      </trkpt>
      <trkpt lat="43.601" lon="5.53272">
        <ele>398.35366918762</ele>
        <time>2020-11-26T08:31:06Z</time>
      </trkpt>
      <trkpt lat="43.60095" lon="5.53262">
        <ele>397.20538417432</ele>
        <time>2020-11-26T08:31:10Z</time>
      </trkpt>
      <trkpt lat="43.60095" lon="5.53253">
        <ele>396.09452846148</ele>
        <time>2020-11-26T08:31:13Z</time>
      </trkpt>
      <trkpt lat="43.60097" lon="5.53244">
        <ele>395.00662500713</ele>
        <time>2020-11-26T08:31:17Z</time>
      </trkpt>
      <trkpt lat="43.60098" lon="5.53217">
        <ele>393.85414802563</ele>
        <time>2020-11-26T08:31:21Z</time>
      </trkpt>
      <trkpt lat="43.60107" lon="5.53182">
        <ele>392.70344881108</ele>
        <time>2020-11-26T08:31:24Z</time>
      </trkpt>
      <trkpt lat="43.60117" lon="5.53156">
        <ele>391.55487702793</ele>
        <time>2020-11-26T08:31:28Z</time>
      </trkpt>
      <trkpt lat="43.60126" lon="5.5311">
        <ele>390.38350773835</ele>
        <time>2020-11-26T08:31:31Z</time>
      </trkpt>
      <trkpt lat="43.60131" lon="5.53101">
        <ele>389.305241504</ele>
        <time>2020-11-26T08:31:35Z</time>
      </trkpt>
      <trkpt lat="43.60136" lon="5.53082">
        <ele>388.2224180001</ele>
        <time>2020-11-26T08:31:38Z</time>
      </trkpt>
      <trkpt lat="43.6014" lon="5.53073">
        <ele>387.19013406695</ele>
        <time>2020-11-26T08:31:42Z</time>
      </trkpt>
      <trkpt lat="43.60142" lon="5.53064">
        <ele>386.14414217969</ele>
        <time>2020-11-26T08:31:45Z</time>
      </trkpt>
      <trkpt lat="43.60142" lon="5.53047">
        <ele>385.09665022045</ele>
        <time>2020-11-26T08:31:49Z</time>
      </trkpt>
      <trkpt lat="43.60146" lon="5.53029">
        <ele>384.07119923416</ele>
        <time>2020-11-26T08:31:52Z</time>
      </trkpt>
      <trkpt lat="43.60147" lon="5.53011">
        <ele>382.97603318004</ele>
        <time>2020-11-26T08:31:56Z</time>
      </trkpt>
      <trkpt lat="43.60143" lon="5.52985">
        <ele>381.83790208831</ele>
        <time>2020-11-26T08:32:00Z</time>
      </trkpt>
      <trkpt lat="43.60143" lon="5.52975">
        <ele>380.66678561451</ele>
        <time>2020-11-26T08:32:03Z</time>
      </trkpt>
      <trkpt lat="43.60141" lon="5.52966">
        <ele>379.44351269486</ele>
        <time>2020-11-26T08:32:07Z</time>
      </trkpt>
      <trkpt lat="43.60136" lon="5.52956">
        <ele>378.15972739143</ele>
        <time>2020-11-26T08:32:10Z</time>
      </trkpt>
      <trkpt lat="43.60132" lon="5.52938">
        <ele>376.84118679532</ele>
        <time>2020-11-26T08:32:14Z</time>
      </trkpt>
      <trkpt lat="43.60132" lon="5.52901">
        <ele>375.442535497</ele>
        <time>2020-11-26T08:32:17Z</time>
      </trkpt>
      <trkpt lat="43.60143" lon="5.52736">
        <ele>373.82276483409</ele>
        <time>2020-11-26T08:32:21Z</time>
      </trkpt>
      <trkpt lat="43.60149" lon="5.52728">
        <ele>372.30788951126</ele>
        <time>2020-11-26T08:32:25Z</time>
      </trkpt>
      <trkpt lat="43.60161" lon="5.52716">
        <ele>370.68743304182</ele>
        <time>2020-11-26T08:32:28Z</time>
      </trkpt>
      <trkpt lat="43.60167" lon="5.52707">
        <ele>369.05767486315</ele>
        <time>2020-11-26T08:32:32Z</time>
      </trkpt>
      <trkpt lat="43.60174" lon="5.527">
        <ele>367.34547152709</ele>
        <time>2020-11-26T08:32:35Z</time>
      </trkpt>
      <trkpt lat="43.60201" lon="5.52689">
        <ele>365.20251938092</ele>
        <time>2020-11-26T08:32:39Z</time>
      </trkpt>
      <trkpt lat="43.60214" lon="5.52688">
        <ele>363.34910475343</ele>
        <time>2020-11-26T08:32:43Z</time>
      </trkpt>
      <trkpt lat="43.6022" lon="5.52682">
        <ele>361.62698302529</ele>
        <time>2020-11-26T08:32:46Z</time>
      </trkpt>
      <trkpt lat="43.6022" lon="5.52672">
        <ele>360.03185856395</ele>
        <time>2020-11-26T08:32:50Z</time>
      </trkpt>
      <trkpt lat="43.60218" lon="5.52664">
        <ele>358.51676143677</ele>
        <time>2020-11-26T08:32:54Z</time>
      </trkpt>
      <trkpt lat="43.60219" lon="5.52614">
        <ele>356.93635560387</ele>
        <time>2020-11-26T08:32:57Z</time>
      </trkpt>
      <trkpt lat="43.60217" lon="5.52605">
        <ele>355.46162309808</ele>
        <time>2020-11-26T08:33:01Z</time>
      </trkpt>
      <trkpt lat="43.60217" lon="5.52557">
        <ele>353.74595918031</ele>
        <time>2020-11-26T08:33:04Z</time>
      </trkpt>
      <trkpt lat="43.60212" lon="5.52539">
        <ele>352.31689083429</ele>
        <time>2020-11-26T08:33:08Z</time>
      </trkpt>
      <trkpt lat="43.6021" lon="5.52493">
        <ele>350.84106903062</ele>
        <time>2020-11-26T08:33:12Z</time>
      </trkpt>
      <trkpt lat="43.60214" lon="5.52467">
        <ele>349.37059317146</ele>
        <time>2020-11-26T08:33:15Z</time>
      </trkpt>
      <trkpt lat="43.6021" lon="5.52458">
        <ele>348.13299953431</ele>
        <time>2020-11-26T08:33:19Z</time>
      </trkpt>
      <trkpt lat="43.60208" lon="5.5244">
        <ele>346.93258590845</ele>
        <time>2020-11-26T08:33:23Z</time>
      </trkpt>
      <trkpt lat="43.60195" lon="5.52424">
        <ele>345.9171637424</ele>
        <time>2020-11-26T08:33:26Z</time>
      </trkpt>
      <trkpt lat="43.60191" lon="5.52397">
        <ele>344.75979785223</ele>
        <time>2020-11-26T08:33:30Z</time>
      </trkpt>
      <trkpt lat="43.60184" lon="5.52379">
        <ele>343.69713457248</ele>
        <time>2020-11-26T08:33:34Z</time>
      </trkpt>
      <trkpt lat="43.60179" lon="5.52352">
        <ele>342.57088011215</ele>
        <time>2020-11-26T08:33:37Z</time>
      </trkpt>
      <trkpt lat="43.60168" lon="5.52325">
        <ele>341.54762981628</ele>
        <time>2020-11-26T08:33:41Z</time>
      </trkpt>
      <trkpt lat="43.60167" lon="5.52307">
        <ele>340.46579185495</ele>
        <time>2020-11-26T08:33:45Z</time>
      </trkpt>
      <trkpt lat="43.60163" lon="5.52298">
        <ele>339.44085965606</ele>
        <time>2020-11-26T08:33:48Z</time>
      </trkpt>
      <trkpt lat="43.60158" lon="5.5229">
        <ele>338.46914173388</ele>
        <time>2020-11-26T08:33:52Z</time>
      </trkpt>
      <trkpt lat="43.60152" lon="5.52284">
        <ele>337.53063303351</ele>
        <time>2020-11-26T08:33:56Z</time>
      </trkpt>
      <trkpt lat="43.60147" lon="5.52276">
        <ele>336.52217684168</ele>
        <time>2020-11-26T08:33:59Z</time>
      </trkpt>
      <trkpt lat="43.60145" lon="5.52267">
        <ele>335.41980018998</ele>
        <time>2020-11-26T08:34:03Z</time>
      </trkpt>
      <trkpt lat="43.60154" lon="5.52254">
        <ele>334.1125047459</ele>
        <time>2020-11-26T08:34:07Z</time>
      </trkpt>
      <trkpt lat="43.60164" lon="5.52246">
        <ele>332.84722315327</ele>
        <time>2020-11-26T08:34:11Z</time>
      </trkpt>
      <trkpt lat="43.60171" lon="5.52242">
        <ele>331.66615781236</ele>
        <time>2020-11-26T08:34:14Z</time>
      </trkpt>
      <trkpt lat="43.60183" lon="5.52226">
        <ele>330.34959796188</ele>
        <time>2020-11-26T08:34:18Z</time>
      </trkpt>
      <trkpt lat="43.6019" lon="5.52209">
        <ele>329.06999901658</ele>
        <time>2020-11-26T08:34:22Z</time>
      </trkpt>
      <trkpt lat="43.6019" lon="5.522">
        <ele>327.86450251741</ele>
        <time>2020-11-26T08:34:25Z</time>
      </trkpt>
      <trkpt lat="43.60179" lon="5.52164">
        <ele>326.52400192976</ele>
        <time>2020-11-26T08:34:29Z</time>
      </trkpt>
      <trkpt lat="43.60171" lon="5.52129">
        <ele>325.11436186324</ele>
        <time>2020-11-26T08:34:33Z</time>
      </trkpt>
      <trkpt lat="43.60162" lon="5.52111">
        <ele>323.7837175868</ele>
        <time>2020-11-26T08:34:36Z</time>
      </trkpt>
      <trkpt lat="43.60167" lon="5.52102">
        <ele>322.56276638783</ele>
        <time>2020-11-26T08:34:40Z</time>
      </trkpt>
      <trkpt lat="43.60171" lon="5.52084">
        <ele>321.31519024662</ele>
        <time>2020-11-26T08:34:44Z</time>
      </trkpt>
      <trkpt lat="43.60178" lon="5.52079">
        <ele>320.12691091808</ele>
        <time>2020-11-26T08:34:48Z</time>
      </trkpt>
      <trkpt lat="43.60184" lon="5.52077">
        <ele>318.93546587622</ele>
        <time>2020-11-26T08:34:51Z</time>
      </trkpt>
      <trkpt lat="43.60191" lon="5.52079">
        <ele>317.73721562578</ele>
        <time>2020-11-26T08:34:55Z</time>
      </trkpt>
      <trkpt lat="43.60197" lon="5.52082">
        <ele>316.52581698487</ele>
        <time>2020-11-26T08:34:59Z</time>
      </trkpt>
      <trkpt lat="43.60204" lon="5.52077">
        <ele>315.25221261322</ele>
        <time>2020-11-26T08:35:02Z</time>
      </trkpt>
      <trkpt lat="43.6023" lon="5.52014">
        <ele>313.91105282269</ele>
        <time>2020-11-26T08:35:06Z</time>
      </trkpt>
      <trkpt lat="43.60236" lon="5.52007">
        <ele>312.57497588334</ele>
        <time>2020-11-26T08:35:10Z</time>
      </trkpt>
      <trkpt lat="43.60258" lon="5.51971">
        <ele>311.20249916683</ele>
        <time>2020-11-26T08:35:14Z</time>
      </trkpt>
      <trkpt lat="43.60271" lon="5.51959">
        <ele>309.79832185882</ele>
        <time>2020-11-26T08:35:17Z</time>
      </trkpt>
      <trkpt lat="43.60274" lon="5.51949">
        <ele>308.37280720778</ele>
        <time>2020-11-26T08:35:21Z</time>
      </trkpt>
      <trkpt lat="43.60281" lon="5.51941">
        <ele>306.91951528814</ele>
        <time>2020-11-26T08:35:25Z</time>
      </trkpt>
      <trkpt lat="43.60291" lon="5.51923">
        <ele>305.46008974474</ele>
        <time>2020-11-26T08:35:29Z</time>
      </trkpt>
      <trkpt lat="43.60297" lon="5.51918">
        <ele>303.99124348703</ele>
        <time>2020-11-26T08:35:32Z</time>
      </trkpt>
      <trkpt lat="43.60341" lon="5.51863">
        <ele>302.20672221836</ele>
        <time>2020-11-26T08:35:36Z</time>
      </trkpt>
      <trkpt lat="43.60368" lon="5.51848">
        <ele>300.45271197241</ele>
        <time>2020-11-26T08:35:40Z</time>
      </trkpt>
      <trkpt lat="43.60375" lon="5.51838">
        <ele>298.86660159374</ele>
        <time>2020-11-26T08:35:44Z</time>
      </trkpt>
      <trkpt lat="43.60381" lon="5.51833">
        <ele>297.34560337522</ele>
        <time>2020-11-26T08:35:48Z</time>
      </trkpt>
      <trkpt lat="43.60388" lon="5.51834">
        <ele>295.89498110499</ele>
        <time>2020-11-26T08:35:51Z</time>
      </trkpt>
      <trkpt lat="43.60401" lon="5.51842">
        <ele>294.48260931269</ele>
        <time>2020-11-26T08:35:55Z</time>
      </trkpt>
      <trkpt lat="43.60429" lon="5.51843">
        <ele>292.96737406161</ele>
        <time>2020-11-26T08:35:59Z</time>
      </trkpt>
      <trkpt lat="43.60436" lon="5.51851">
        <ele>291.75010918015</ele>
        <time>2020-11-26T08:36:03Z</time>
      </trkpt>
      <trkpt lat="43.60443" lon="5.51853">
        <ele>290.59768239941</ele>
        <time>2020-11-26T08:36:06Z</time>
      </trkpt>
      <trkpt lat="43.60455" lon="5.51853">
        <ele>289.50863211292</ele>
        <time>2020-11-26T08:36:10Z</time>
      </trkpt>
      <trkpt lat="43.60468" lon="5.5187">
        <ele>288.5245805185</ele>
        <time>2020-11-26T08:36:14Z</time>
      </trkpt>
      <trkpt lat="43.60476" lon="5.51889">
        <ele>287.61508411721</ele>
        <time>2020-11-26T08:36:18Z</time>
      </trkpt>
      <trkpt lat="43.60483" lon="5.51896">
        <ele>286.80836933431</ele>
        <time>2020-11-26T08:36:22Z</time>
      </trkpt>
      <trkpt lat="43.60502" lon="5.51909">
        <ele>286.07311397784</ele>
        <time>2020-11-26T08:36:25Z</time>
      </trkpt>
      <trkpt lat="43.60547" lon="5.51949">
        <ele>285.3793145328</ele>
        <time>2020-11-26T08:36:29Z</time>
      </trkpt>
      <trkpt lat="43.60553" lon="5.51953">
        <ele>284.81289559958</ele>
        <time>2020-11-26T08:36:33Z</time>
      </trkpt>
      <trkpt lat="43.6056" lon="5.51954">
        <ele>284.31726420281</ele>
        <time>2020-11-26T08:36:37Z</time>
      </trkpt>
      <trkpt lat="43.60598" lon="5.51975">
        <ele>283.93651501684</ele>
        <time>2020-11-26T08:36:41Z</time>
      </trkpt>
      <trkpt lat="43.60624" lon="5.51994">
        <ele>283.76189108089</ele>
        <time>2020-11-26T08:36:45Z</time>
      </trkpt>
      <trkpt lat="43.60631" lon="5.51997">
        <ele>283.54404981721</ele>
        <time>2020-11-26T08:36:48Z</time>
      </trkpt>
      <trkpt lat="43.60659" lon="5.51994">
        <ele>283.25550040669</ele>
        <time>2020-11-26T08:36:52Z</time>
      </trkpt>
      <trkpt lat="43.60672" lon="5.51989">
        <ele>283.09676149551</ele>
        <time>2020-11-26T08:36:56Z</time>
      </trkpt>
      <trkpt lat="43.60675" lon="5.51981">
        <ele>283.02901402221</ele>
        <time>2020-11-26T08:37:00Z</time>
      </trkpt>
      <trkpt lat="43.6068" lon="5.51972">
        <ele>283.06122720535</ele>
        <time>2020-11-26T08:37:04Z</time>
      </trkpt>
      <trkpt lat="43.60682" lon="5.51955">
        <ele>283.13541397457</ele>
        <time>2020-11-26T08:37:08Z</time>
      </trkpt>
      <trkpt lat="43.60685" lon="5.51937">
        <ele>283.33272277114</ele>
        <time>2020-11-26T08:37:11Z</time>
      </trkpt>
      <trkpt lat="43.60684" lon="5.51919">
        <ele>283.58085085871</ele>
        <time>2020-11-26T08:37:15Z</time>
      </trkpt>
      <trkpt lat="43.60671" lon="5.51905">
        <ele>283.90564459376</ele>
        <time>2020-11-26T08:37:19Z</time>
      </trkpt>
      <trkpt lat="43.60671" lon="5.51905">
        <ele>284.50607878504</ele>
        <time>2020-11-26T08:37:23Z</time>
      </trkpt>
      <trkpt lat="43.60671" lon="5.51905">
        <ele>284.84562621866</ele>
        <time>2020-11-26T08:37:27Z</time>
      </trkpt>
      <trkpt lat="43.60626" lon="5.51864">
        <ele>285.28898313537</ele>
        <time>2020-11-26T08:37:31Z</time>
      </trkpt>
      <trkpt lat="43.60576" lon="5.51811">
        <ele>285.8271866096</ele>
        <time>2020-11-26T08:37:35Z</time>
      </trkpt>
      <trkpt lat="43.60557" lon="5.51794">
        <ele>286.2259876585</ele>
        <time>2020-11-26T08:37:39Z</time>
      </trkpt>
      <trkpt lat="43.60523" lon="5.51741">
        <ele>286.62056769243</ele>
        <time>2020-11-26T08:37:42Z</time>
      </trkpt>
      <trkpt lat="43.60517" lon="5.51735">
        <ele>286.97456183614</ele>
        <time>2020-11-26T08:37:46Z</time>
      </trkpt>
      <trkpt lat="43.60507" lon="5.51718">
        <ele>287.36040060517</ele>
        <time>2020-11-26T08:37:50Z</time>
      </trkpt>
      <trkpt lat="43.6048" lon="5.517">
        <ele>287.66337827326</ele>
        <time>2020-11-26T08:37:54Z</time>
      </trkpt>
      <trkpt lat="43.60466" lon="5.517">
        <ele>287.94264260345</ele>
        <time>2020-11-26T08:37:58Z</time>
      </trkpt>
      <trkpt lat="43.60461" lon="5.5169">
        <ele>288.29012282447</ele>
        <time>2020-11-26T08:38:02Z</time>
      </trkpt>
      <trkpt lat="43.60434" lon="5.51663">
        <ele>288.60409830368</ele>
        <time>2020-11-26T08:38:06Z</time>
      </trkpt>
      <trkpt lat="43.60406" lon="5.51648">
        <ele>288.86975709257</ele>
        <time>2020-11-26T08:38:10Z</time>
      </trkpt>
      <trkpt lat="43.60393" lon="5.51635">
        <ele>289.19228093377</ele>
        <time>2020-11-26T08:38:14Z</time>
      </trkpt>
      <trkpt lat="43.60383" lon="5.51631">
        <ele>289.50914770427</ele>
        <time>2020-11-26T08:38:18Z</time>
      </trkpt>
      <trkpt lat="43.60353" lon="5.51611">
        <ele>289.86660183699</ele>
        <time>2020-11-26T08:38:22Z</time>
      </trkpt>
      <trkpt lat="43.60298" lon="5.51608">
        <ele>290.19345839446</ele>
        <time>2020-11-26T08:38:25Z</time>
      </trkpt>
      <trkpt lat="43.60284" lon="5.51613">
        <ele>290.52823093822</ele>
        <time>2020-11-26T08:38:29Z</time>
      </trkpt>
      <trkpt lat="43.60241" lon="5.51639">
        <ele>290.93278202985</ele>
        <time>2020-11-26T08:38:33Z</time>
      </trkpt>
      <trkpt lat="43.60234" lon="5.51639">
        <ele>291.29600442733</ele>
        <time>2020-11-26T08:38:37Z</time>
      </trkpt>
      <trkpt lat="43.60213" lon="5.51632">
        <ele>291.67757948863</ele>
        <time>2020-11-26T08:38:41Z</time>
      </trkpt>
      <trkpt lat="43.60191" lon="5.51634">
        <ele>292.07930166895</ele>
        <time>2020-11-26T08:38:45Z</time>
      </trkpt>
      <trkpt lat="43.60164" lon="5.51649">
        <ele>292.46603101385</ele>
        <time>2020-11-26T08:38:49Z</time>
      </trkpt>
      <trkpt lat="43.60136" lon="5.51672">
        <ele>292.92300656454</ele>
        <time>2020-11-26T08:38:53Z</time>
      </trkpt>
      <trkpt lat="43.60107" lon="5.51688">
        <ele>293.42690320878</ele>
        <time>2020-11-26T08:38:57Z</time>
      </trkpt>
      <trkpt lat="43.6009" lon="5.51703">
        <ele>294.00844719248</ele>
        <time>2020-11-26T08:39:01Z</time>
      </trkpt>
      <trkpt lat="43.60014" lon="5.5172">
        <ele>294.65980285602</ele>
        <time>2020-11-26T08:39:05Z</time>
      </trkpt>
      <trkpt lat="43.59987" lon="5.51737">
        <ele>295.22344233001</ele>
        <time>2020-11-26T08:39:09Z</time>
      </trkpt>
      <trkpt lat="43.59973" lon="5.51763">
        <ele>295.80135408335</ele>
        <time>2020-11-26T08:39:13Z</time>
      </trkpt>
      <trkpt lat="43.59959" lon="5.51801">
        <ele>296.44906995935</ele>
        <time>2020-11-26T08:39:17Z</time>
      </trkpt>
      <trkpt lat="43.59939" lon="5.51824">
        <ele>297.08084811343</ele>
        <time>2020-11-26T08:39:21Z</time>
      </trkpt>
      <trkpt lat="43.59891" lon="5.51856">
        <ele>297.93663029699</ele>
        <time>2020-11-26T08:39:25Z</time>
      </trkpt>
      <trkpt lat="43.59857" lon="5.51862">
        <ele>298.63803069707</ele>
        <time>2020-11-26T08:39:29Z</time>
      </trkpt>
      <trkpt lat="43.59742" lon="5.51866">
        <ele>299.60576169411</ele>
        <time>2020-11-26T08:39:33Z</time>
      </trkpt>
      <trkpt lat="43.59735" lon="5.51869">
        <ele>300.34030050843</ele>
        <time>2020-11-26T08:39:38Z</time>
      </trkpt>
      <trkpt lat="43.59723" lon="5.51869">
        <ele>301.08887215266</ele>
        <time>2020-11-26T08:39:42Z</time>
      </trkpt>
      <trkpt lat="43.5971" lon="5.51864">
        <ele>301.81896681417</ele>
        <time>2020-11-26T08:39:46Z</time>
      </trkpt>
      <trkpt lat="43.5969" lon="5.51848">
        <ele>302.57480530903</ele>
        <time>2020-11-26T08:39:50Z</time>
      </trkpt>
      <trkpt lat="43.59683" lon="5.5184">
        <ele>303.31331867712</ele>
        <time>2020-11-26T08:39:54Z</time>
      </trkpt>
      <trkpt lat="43.59657" lon="5.5183">
        <ele>304.09677354819</ele>
        <time>2020-11-26T08:39:58Z</time>
      </trkpt>
      <trkpt lat="43.59577" lon="5.51756">
        <ele>304.96798671786</ele>
        <time>2020-11-26T08:40:02Z</time>
      </trkpt>
      <trkpt lat="43.59565" lon="5.51736">
        <ele>305.69364763762</ele>
        <time>2020-11-26T08:40:06Z</time>
      </trkpt>
      <trkpt lat="43.59552" lon="5.51726">
        <ele>306.35732256055</ele>
        <time>2020-11-26T08:40:10Z</time>
      </trkpt>
      <trkpt lat="43.59546" lon="5.51719">
        <ele>306.99073970396</ele>
        <time>2020-11-26T08:40:14Z</time>
      </trkpt>
      <trkpt lat="43.59539" lon="5.51716">
        <ele>307.58431422436</ele>
        <time>2020-11-26T08:40:18Z</time>
      </trkpt>
      <trkpt lat="43.59511" lon="5.51712">
        <ele>308.14800478443</ele>
        <time>2020-11-26T08:40:23Z</time>
      </trkpt>
      <trkpt lat="43.59506" lon="5.51703">
        <ele>308.69327581199</ele>
        <time>2020-11-26T08:40:27Z</time>
      </trkpt>
      <trkpt lat="43.59499" lon="5.51695">
        <ele>309.22226875312</ele>
        <time>2020-11-26T08:40:31Z</time>
      </trkpt>
      <trkpt lat="43.5948" lon="5.51662">
        <ele>309.70960769223</ele>
        <time>2020-11-26T08:40:35Z</time>
      </trkpt>
      <trkpt lat="43.59442" lon="5.51644">
        <ele>310.26776053646</ele>
        <time>2020-11-26T08:40:39Z</time>
      </trkpt>
      <trkpt lat="43.59416" lon="5.51643">
        <ele>310.79444519045</ele>
        <time>2020-11-26T08:40:43Z</time>
      </trkpt>
      <trkpt lat="43.59402" lon="5.51633">
        <ele>311.26668401003</ele>
        <time>2020-11-26T08:40:47Z</time>
      </trkpt>
      <trkpt lat="43.5939" lon="5.51626">
        <ele>311.70897823944</ele>
        <time>2020-11-26T08:40:52Z</time>
      </trkpt>
      <trkpt lat="43.59377" lon="5.51614">
        <ele>312.08712987069</ele>
        <time>2020-11-26T08:40:56Z</time>
      </trkpt>
      <trkpt lat="43.59364" lon="5.51606">
        <ele>312.43269273577</ele>
        <time>2020-11-26T08:41:00Z</time>
      </trkpt>
      <trkpt lat="43.59344" lon="5.51581">
        <ele>312.6965332741</ele>
        <time>2020-11-26T08:41:04Z</time>
      </trkpt>
      <trkpt lat="43.5934" lon="5.51573">
        <ele>313.00760671293</ele>
        <time>2020-11-26T08:41:08Z</time>
      </trkpt>
      <trkpt lat="43.59323" lon="5.51508">
        <ele>313.33161056667</ele>
        <time>2020-11-26T08:41:12Z</time>
      </trkpt>
      <trkpt lat="43.59305" lon="5.51485">
        <ele>313.71519209914</ele>
        <time>2020-11-26T08:41:17Z</time>
      </trkpt>
      <trkpt lat="43.59265" lon="5.51444">
        <ele>314.05553339194</ele>
        <time>2020-11-26T08:41:21Z</time>
      </trkpt>
      <trkpt lat="43.59256" lon="5.51418">
        <ele>314.28450647086</ele>
        <time>2020-11-26T08:41:25Z</time>
      </trkpt>
      <trkpt lat="43.59247" lon="5.51372">
        <ele>314.57994841037</ele>
        <time>2020-11-26T08:41:29Z</time>
      </trkpt>
      <trkpt lat="43.59247" lon="5.51354">
        <ele>314.77858256345</ele>
        <time>2020-11-26T08:41:33Z</time>
      </trkpt>
      <trkpt lat="43.59258" lon="5.51337">
        <ele>314.95360677839</ele>
        <time>2020-11-26T08:41:38Z</time>
      </trkpt>
      <trkpt lat="43.59261" lon="5.51328">
        <ele>315.1702791427</ele>
        <time>2020-11-26T08:41:42Z</time>
      </trkpt>
      <trkpt lat="43.59261" lon="5.51319">
        <ele>315.38205583254</ele>
        <time>2020-11-26T08:41:46Z</time>
      </trkpt>
      <trkpt lat="43.59254" lon="5.51302">
        <ele>315.59196987047</ele>
        <time>2020-11-26T08:41:50Z</time>
      </trkpt>
      <trkpt lat="43.59253" lon="5.51294">
        <ele>315.81128287164</ele>
        <time>2020-11-26T08:41:54Z</time>
      </trkpt>
      <trkpt lat="43.5924" lon="5.51266">
        <ele>316.06286121639</ele>
        <time>2020-11-26T08:41:59Z</time>
      </trkpt>
      <trkpt lat="43.59238" lon="5.51257">
        <ele>316.30562998066</ele>
        <time>2020-11-26T08:42:03Z</time>
      </trkpt>
      <trkpt lat="43.5919" lon="5.51158">
        <ele>316.64536632175</ele>
        <time>2020-11-26T08:42:07Z</time>
      </trkpt>
      <trkpt lat="43.5916" lon="5.51114">
        <ele>316.78369710985</ele>
        <time>2020-11-26T08:42:11Z</time>
      </trkpt>
      <trkpt lat="43.59132" lon="5.51069">
        <ele>317.10725895814</ele>
        <time>2020-11-26T08:42:16Z</time>
      </trkpt>
      <trkpt lat="43.59044" lon="5.50967">
        <ele>317.41188043524</ele>
        <time>2020-11-26T08:42:20Z</time>
      </trkpt>
      <trkpt lat="43.59022" lon="5.50959">
        <ele>317.60075549089</ele>
        <time>2020-11-26T08:42:24Z</time>
      </trkpt>
      <trkpt lat="43.59002" lon="5.50935">
        <ele>317.88714689617</ele>
        <time>2020-11-26T08:42:28Z</time>
      </trkpt>
      <trkpt lat="43.58957" lon="5.50896">
        <ele>318.05086109403</ele>
        <time>2020-11-26T08:42:33Z</time>
      </trkpt>
      <trkpt lat="43.5895" lon="5.50879">
        <ele>318.43015477705</ele>
        <time>2020-11-26T08:42:37Z</time>
      </trkpt>
      <trkpt lat="43.58943" lon="5.50875">
        <ele>318.82145975193</ele>
        <time>2020-11-26T08:42:41Z</time>
      </trkpt>
      <trkpt lat="43.58931" lon="5.50876">
        <ele>319.25523502662</ele>
        <time>2020-11-26T08:42:46Z</time>
      </trkpt>
      <trkpt lat="43.58925" lon="5.50875">
        <ele>319.81610408236</ele>
        <time>2020-11-26T08:42:50Z</time>
      </trkpt>
      <trkpt lat="43.58918" lon="5.50868">
        <ele>320.50273405184</ele>
        <time>2020-11-26T08:42:54Z</time>
      </trkpt>
      <trkpt lat="43.58914" lon="5.50859">
        <ele>321.32691264799</ele>
        <time>2020-11-26T08:42:58Z</time>
      </trkpt>
      <trkpt lat="43.58907" lon="5.50851">
        <ele>322.25969811922</ele>
        <time>2020-11-26T08:43:03Z</time>
      </trkpt>
      <trkpt lat="43.58895" lon="5.5084">
        <ele>323.32806303084</ele>
        <time>2020-11-26T08:43:07Z</time>
      </trkpt>
      <trkpt lat="43.58882" lon="5.50824">
        <ele>324.49213071381</ele>
        <time>2020-11-26T08:43:11Z</time>
      </trkpt>
      <trkpt lat="43.58863" lon="5.50812">
        <ele>325.76518414532</ele>
        <time>2020-11-26T08:43:16Z</time>
      </trkpt>
      <trkpt lat="43.58857" lon="5.50804">
        <ele>327.15379058812</ele>
        <time>2020-11-26T08:43:20Z</time>
      </trkpt>
      <trkpt lat="43.58854" lon="5.50796">
        <ele>328.60970697316</ele>
        <time>2020-11-26T08:43:24Z</time>
      </trkpt>
      <trkpt lat="43.58854" lon="5.50778">
        <ele>330.23279896872</ele>
        <time>2020-11-26T08:43:29Z</time>
      </trkpt>
      <trkpt lat="43.58881" lon="5.50704">
        <ele>332.33114065449</ele>
        <time>2020-11-26T08:43:33Z</time>
      </trkpt>
      <trkpt lat="43.58885" lon="5.50677">
        <ele>334.27943429321</ele>
        <time>2020-11-26T08:43:37Z</time>
      </trkpt>
      <trkpt lat="43.58891" lon="5.50668">
        <ele>336.19634008997</ele>
        <time>2020-11-26T08:43:42Z</time>
      </trkpt>
      <trkpt lat="43.58904" lon="5.50655">
        <ele>338.27978730039</ele>
        <time>2020-11-26T08:43:46Z</time>
      </trkpt>
      <trkpt lat="43.58915" lon="5.50638">
        <ele>340.36533655202</ele>
        <time>2020-11-26T08:43:50Z</time>
      </trkpt>
      <trkpt lat="43.58925" lon="5.50602">
        <ele>342.64646452276</ele>
        <time>2020-11-26T08:43:55Z</time>
      </trkpt>
      <trkpt lat="43.58943" lon="5.50565">
        <ele>344.874515664</ele>
        <time>2020-11-26T08:43:59Z</time>
      </trkpt>
      <trkpt lat="43.5895" lon="5.50537">
        <ele>347.09977656389</ele>
        <time>2020-11-26T08:44:03Z</time>
      </trkpt>
      <trkpt lat="43.58974" lon="5.50429">
        <ele>349.51637445785</ele>
        <time>2020-11-26T08:44:08Z</time>
      </trkpt>
      <trkpt lat="43.58993" lon="5.50393">
        <ele>351.54222294632</ele>
        <time>2020-11-26T08:44:12Z</time>
      </trkpt>
      <trkpt lat="43.58995" lon="5.50385">
        <ele>353.50978999339</ele>
        <time>2020-11-26T08:44:17Z</time>
      </trkpt>
      <trkpt lat="43.58994" lon="5.50354">
        <ele>355.53434299669</ele>
        <time>2020-11-26T08:44:21Z</time>
      </trkpt>
      <trkpt lat="43.58995" lon="5.5032">
        <ele>357.5301919253</ele>
        <time>2020-11-26T08:44:25Z</time>
      </trkpt>
      <trkpt lat="43.58993" lon="5.50284">
        <ele>359.40142988399</ele>
        <time>2020-11-26T08:44:30Z</time>
      </trkpt>
      <trkpt lat="43.58996" lon="5.50266">
        <ele>361.04525257531</ele>
        <time>2020-11-26T08:44:34Z</time>
      </trkpt>
      <trkpt lat="43.59008" lon="5.50228">
        <ele>362.65550435213</ele>
        <time>2020-11-26T08:44:39Z</time>
      </trkpt>
      <trkpt lat="43.59028" lon="5.5014">
        <ele>364.01976160076</ele>
        <time>2020-11-26T08:44:43Z</time>
      </trkpt>
      <trkpt lat="43.59046" lon="5.50114">
        <ele>365.20115023306</ele>
        <time>2020-11-26T08:44:48Z</time>
      </trkpt>
      <trkpt lat="43.59065" lon="5.50058">
        <ele>366.20064309787</ele>
        <time>2020-11-26T08:44:52Z</time>
      </trkpt>
      <trkpt lat="43.59078" lon="5.50042">
        <ele>367.18503764666</ele>
        <time>2020-11-26T08:44:56Z</time>
      </trkpt>
      <trkpt lat="43.59098" lon="5.50023">
        <ele>367.94945184723</ele>
        <time>2020-11-26T08:45:01Z</time>
      </trkpt>
      <trkpt lat="43.59105" lon="5.5002">
        <ele>368.7685748276</ele>
        <time>2020-11-26T08:45:05Z</time>
      </trkpt>
      <trkpt lat="43.59177" lon="5.50023">
        <ele>369.5932187031</ele>
        <time>2020-11-26T08:45:10Z</time>
      </trkpt>
      <trkpt lat="43.59191" lon="5.50033">
        <ele>370.3302269301</ele>
        <time>2020-11-26T08:45:14Z</time>
      </trkpt>
      <trkpt lat="43.59198" lon="5.50028">
        <ele>370.98233162458</ele>
        <time>2020-11-26T08:45:19Z</time>
      </trkpt>
      <trkpt lat="43.59216" lon="5.50025">
        <ele>371.59166512393</ele>
        <time>2020-11-26T08:45:23Z</time>
      </trkpt>
      <trkpt lat="43.59244" lon="5.50028">
        <ele>372.24267080848</ele>
        <time>2020-11-26T08:45:28Z</time>
      </trkpt>
      <trkpt lat="43.59257" lon="5.50028">
        <ele>372.69350272609</ele>
        <time>2020-11-26T08:45:32Z</time>
      </trkpt>
      <trkpt lat="43.59264" lon="5.50031">
        <ele>372.95664960774</ele>
        <time>2020-11-26T08:45:37Z</time>
      </trkpt>
      <trkpt lat="43.5927" lon="5.50031">
        <ele>373.12314020924</ele>
        <time>2020-11-26T08:45:41Z</time>
      </trkpt>
      <trkpt lat="43.59274" lon="5.50022">
        <ele>373.16702553032</ele>
        <time>2020-11-26T08:45:46Z</time>
      </trkpt>
      <trkpt lat="43.59274" lon="5.50003">
        <ele>373.06767291555</ele>
        <time>2020-11-26T08:45:50Z</time>
      </trkpt>
      <trkpt lat="43.59278" lon="5.49928">
        <ele>372.84677004376</ele>
        <time>2020-11-26T08:45:55Z</time>
      </trkpt>
      <trkpt lat="43.59276" lon="5.49876">
        <ele>372.54215658077</ele>
        <time>2020-11-26T08:45:59Z</time>
      </trkpt>
      <trkpt lat="43.59271" lon="5.49867">
        <ele>372.27284242407</ele>
        <time>2020-11-26T08:46:04Z</time>
      </trkpt>
      <trkpt lat="43.59269" lon="5.49859">
        <ele>371.98733432853</ele>
        <time>2020-11-26T08:46:08Z</time>
      </trkpt>
      <trkpt lat="43.59259" lon="5.4983">
        <ele>371.67103345657</ele>
        <time>2020-11-26T08:46:13Z</time>
      </trkpt>
      <trkpt lat="43.59255" lon="5.49795">
        <ele>371.34383426205</ele>
        <time>2020-11-26T08:46:17Z</time>
      </trkpt>
      <trkpt lat="43.59255" lon="5.49786">
        <ele>370.95631380143</ele>
        <time>2020-11-26T08:46:22Z</time>
      </trkpt>
      <trkpt lat="43.59258" lon="5.49776">
        <ele>370.54810199735</ele>
        <time>2020-11-26T08:46:26Z</time>
      </trkpt>
      <trkpt lat="43.59257" lon="5.49767">
        <ele>370.08835848677</ele>
        <time>2020-11-26T08:46:31Z</time>
      </trkpt>
      <trkpt lat="43.59243" lon="5.49745">
        <ele>369.55724163589</ele>
        <time>2020-11-26T08:46:35Z</time>
      </trkpt>
      <trkpt lat="43.59243" lon="5.49731">
        <ele>369.16230708435</ele>
        <time>2020-11-26T08:46:40Z</time>
      </trkpt>
      <trkpt lat="43.5924" lon="5.49723">
        <ele>368.76295073709</ele>
        <time>2020-11-26T08:46:44Z</time>
      </trkpt>
      <trkpt lat="43.59223" lon="5.49703">
        <ele>368.30739592189</ele>
        <time>2020-11-26T08:46:49Z</time>
      </trkpt>
      <trkpt lat="43.59212" lon="5.49675">
        <ele>368.05316375131</ele>
        <time>2020-11-26T08:46:53Z</time>
      </trkpt>
      <trkpt lat="43.59206" lon="5.49647">
        <ele>368.08831595356</ele>
        <time>2020-11-26T08:46:58Z</time>
      </trkpt>
      <trkpt lat="43.59192" lon="5.49601">
        <ele>368.28676195564</ele>
        <time>2020-11-26T08:47:02Z</time>
      </trkpt>
      <trkpt lat="43.5919" lon="5.49554">
        <ele>369.04475824376</ele>
        <time>2020-11-26T08:47:07Z</time>
      </trkpt>
      <trkpt lat="43.59194" lon="5.49546">
        <ele>369.7019951627</ele>
        <time>2020-11-26T08:47:12Z</time>
      </trkpt>
      <trkpt lat="43.59213" lon="5.49536">
        <ele>370.5681797863</ele>
        <time>2020-11-26T08:47:16Z</time>
      </trkpt>
      <trkpt lat="43.59231" lon="5.4951">
        <ele>371.32326233415</ele>
        <time>2020-11-26T08:47:21Z</time>
      </trkpt>
      <trkpt lat="43.5925" lon="5.49491">
        <ele>372.17129165944</ele>
        <time>2020-11-26T08:47:25Z</time>
      </trkpt>
      <trkpt lat="43.59271" lon="5.49483">
        <ele>373.16853305407</ele>
        <time>2020-11-26T08:47:30Z</time>
      </trkpt>
      <trkpt lat="43.59284" lon="5.49475">
        <ele>374.14131928609</ele>
        <time>2020-11-26T08:47:34Z</time>
      </trkpt>
      <trkpt lat="43.59288" lon="5.49466">
        <ele>375.02731136296</ele>
        <time>2020-11-26T08:47:39Z</time>
      </trkpt>
      <trkpt lat="43.59295" lon="5.4946">
        <ele>375.98767147063</ele>
        <time>2020-11-26T08:47:44Z</time>
      </trkpt>
      <trkpt lat="43.59308" lon="5.49456">
        <ele>377.06960765892</ele>
        <time>2020-11-26T08:47:48Z</time>
      </trkpt>
      <trkpt lat="43.59326" lon="5.4943">
        <ele>378.05589447626</ele>
        <time>2020-11-26T08:47:53Z</time>
      </trkpt>
      <trkpt lat="43.59339" lon="5.49422">
        <ele>379.0635629899</ele>
        <time>2020-11-26T08:47:57Z</time>
      </trkpt>
      <trkpt lat="43.59346" lon="5.49422">
        <ele>380.01792786232</ele>
        <time>2020-11-26T08:48:02Z</time>
      </trkpt>
      <trkpt lat="43.59352" lon="5.49416">
        <ele>380.95466479834</ele>
        <time>2020-11-26T08:48:07Z</time>
      </trkpt>
      <trkpt lat="43.59372" lon="5.49417">
        <ele>382.00777297364</ele>
        <time>2020-11-26T08:48:11Z</time>
      </trkpt>
      <trkpt lat="43.59378" lon="5.4942">
        <ele>382.93685762563</ele>
        <time>2020-11-26T08:48:16Z</time>
      </trkpt>
      <trkpt lat="43.59392" lon="5.49412">
        <ele>383.83749152944</ele>
        <time>2020-11-26T08:48:20Z</time>
      </trkpt>
      <trkpt lat="43.59404" lon="5.49412">
        <ele>384.66419929659</ele>
        <time>2020-11-26T08:48:25Z</time>
      </trkpt>
      <trkpt lat="43.59423" lon="5.49418">
        <ele>385.45026916454</ele>
        <time>2020-11-26T08:48:30Z</time>
      </trkpt>
      <trkpt lat="43.59437" lon="5.49415">
        <ele>386.07493216734</ele>
        <time>2020-11-26T08:48:34Z</time>
      </trkpt>
    </trkseg>
  </trk>
</gpx>